Time,TemperatureF,DewpointF,PressureIn,WindDirection,WindDirectionDegrees,WindSpeedMPH,WindSpeedGustMPH,Humidity,HourlyPrecipIn,Conditions,Clouds,dailyrainin,SolarRadiationWatts/m^2,SoftwareType,DateUTC
2013-11-01 00:02:00,45.0,41.4,29.47,West,277,5.0,7.0,87,0.00,,,0.00,0,Wunderground v.1.15,2013-11-01 05:02:00,
2013-11-01 00:03:00,45.0,41.4,29.47,West,275,5.0,7.0,87,0.00,,,0.00,0,Wunderground v.1.15,2013-11-01 05:03:00,
2013-11-01 00:04:00,45.0,41.4,29.47,West,276,6.0,7.0,87,0.00,,,0.00,0,Wunderground v.1.15,2013-11-01 05:04:00,
2013-11-01 00:07:00,45.1,41.2,29.47,West,272,6.0,8.0,86,0.00,,,0.00,0,Wunderground v.1.15,2013-11-01 05:07:00,
2013-11-01 00:10:00,45.1,41.2,29.47,West,278,4.0,6.0,86,0.00,,,0.00,0,Wunderground v.1.15,2013-11-01 05:10:00,
2013-11-01 00:12:00,45.1,41.2,29.47,West,281,4.0,6.0,86,0.00,,,0.00,0,Wunderground v.1.15,2013-11-01 05:12:00,
2013-11-01 00:13:00,45.2,41.3,29.47,WNW,287,5.0,6.0,86,0.00,,,0.00,0,Wunderground v.1.15,2013-11-01 05:13:00,
2013-11-01 00:14:00,45.1,41.2,29.47,WNW,283,7.0,7.0,86,0.00,,,0.00,0,Wunderground v.1.15,2013-11-01 05:14:00,
2013-11-01 00:15:00,45.2,41.3,29.47,WNW,284,4.0,7.0,86,0.00,,,0.00,0,Wunderground v.1.15,2013-11-01 05:15:00,
2013-11-01 00:18:00,45.2,41.3,29.47,West,267,5.0,7.0,86,0.00,,,0.00,0,Wunderground v.1.15,2013-11-01 05:18:00,
2013-11-01 00:20:00,45.2,41.3,29.47,WNW,284,4.0,5.0,86,0.00,,,0.00,0,Wunderground v.1.15,2013-11-01 05:20:00,
2013-11-01 00:21:00,45.2,41.3,29.47,West,279,4.0,5.0,86,0.00,,,0.00,0,Wunderground v.1.15,2013-11-01 05:21:00,
2013-11-01 00:23:00,45.1,41.2,29.47,West,279,3.0,5.0,86,0.00,,,0.00,0,Wunderground v.1.15,2013-11-01 05:23:00,
2013-11-01 00:25:00,45.2,41.3,29.47,West,273,5.0,5.0,86,0.00,,,0.00,0,Wunderground v.1.15,2013-11-01 05:25:00,
2013-11-01 00:27:00,45.1,41.2,29.47,WNW,284,5.0,5.0,86,0.00,,,0.00,0,Wunderground v.1.15,2013-11-01 05:27:00,
2013-11-01 00:28:00,45.1,41.2,29.48,West,275,7.0,7.0,86,0.00,,,0.00,0,Wunderground v.1.15,2013-11-01 05:28:00,
2013-11-01 00:29:00,45.1,41.2,29.48,West,269,4.0,7.0,86,0.00,,,0.00,0,Wunderground v.1.15,2013-11-01 05:29:00,
2013-11-01 00:31:00,45.2,41.3,29.48,West,265,6.0,6.0,86,0.00,,,0.00,0,Wunderground v.1.15,2013-11-01 05:31:00,
2013-11-01 00:32:00,45.2,41.3,29.48,West,276,3.0,6.0,86,0.00,,,0.00,0,Wunderground v.1.15,2013-11-01 05:32:00,
2013-11-01 00:33:00,45.2,41.3,29.48,West,274,5.0,6.0,86,0.00,,,0.00,0,Wunderground v.1.15,2013-11-01 05:33:00,
2013-11-01 00:35:00,45.2,41.3,29.48,West,271,5.0,6.0,86,0.00,,,0.00,0,Wunderground v.1.15,2013-11-01 05:35:00,
2013-11-01 00:37:00,45.2,41.3,29.48,West,272,6.0,6.0,86,0.00,,,0.00,0,Wunderground v.1.15,2013-11-01 05:37:00,
2013-11-01 00:38:00,45.2,41.3,29.48,West,273,4.0,6.0,86,0.00,,,0.00,0,Wunderground v.1.15,2013-11-01 05:38:00,
2013-11-01 00:39:00,45.2,41.3,29.48,West,280,4.0,6.0,86,0.00,,,0.00,0,Wunderground v.1.15,2013-11-01 05:39:00,
2013-11-01 00:45:00,45.3,41.4,29.48,West,269,3.0,5.0,86,0.00,,,0.00,0,Wunderground v.1.15,2013-11-01 05:45:00,
2013-11-01 00:46:00,45.2,41.3,29.47,West,267,4.0,5.0,86,0.00,,,0.00,0,Wunderground v.1.15,2013-11-01 05:46:00,
2013-11-01 00:47:00,45.2,41.3,29.48,West,264,3.0,5.0,86,0.00,,,0.00,0,Wunderground v.1.15,2013-11-01 05:47:00,
2013-11-01 00:48:00,45.2,41.3,29.48,West,261,6.0,6.0,86,0.00,,,0.00,0,Wunderground v.1.15,2013-11-01 05:48:00,
2013-11-01 00:49:00,45.2,41.3,29.48,West,267,4.0,6.0,86,0.00,,,0.00,0,Wunderground v.1.15,2013-11-01 05:49:00,
2013-11-01 00:52:00,45.1,41.5,29.48,West,267,6.0,6.0,87,0.00,,,0.00,0,Wunderground v.1.15,2013-11-01 05:52:00,
2013-11-01 00:53:00,45.1,41.5,29.48,West,273,4.0,6.0,87,0.00,,,0.00,0,Wunderground v.1.15,2013-11-01 05:53:00,
2013-11-01 00:54:00,45.0,41.4,29.48,West,277,3.0,6.0,87,0.00,,,0.00,0,Wunderground v.1.15,2013-11-01 05:54:00,
2013-11-01 00:56:00,45.0,41.4,29.48,West,280,2.0,6.0,87,0.00,,,0.00,0,Wunderground v.1.15,2013-11-01 05:56:00,
2013-11-01 00:58:00,45.0,41.4,29.48,West,269,4.0,6.0,87,0.00,,,0.00,0,Wunderground v.1.15,2013-11-01 05:58:00,
2013-11-01 00:59:00,45.0,41.4,29.48,West,273,3.0,6.0,87,0.00,,,0.00,0,Wunderground v.1.15,2013-11-01 05:59:00,
2013-11-01 01:00:00,45.0,41.4,29.48,West,267,3.0,3.0,87,0.00,,,0.00,0,Wunderground v.1.15,2013-11-01 06:00:00,
2013-11-01 01:04:00,45.0,41.4,29.48,West,278,2.0,4.0,87,0.00,,,0.00,0,Wunderground v.1.15,2013-11-01 06:04:00,
2013-11-01 01:05:00,45.0,41.4,29.48,West,271,4.0,4.0,87,0.00,,,0.00,0,Wunderground v.1.15,2013-11-01 06:05:00,
2013-11-01 01:06:00,45.0,41.4,29.48,West,274,3.0,4.0,87,0.00,,,0.00,0,Wunderground v.1.15,2013-11-01 06:06:00,
2013-11-01 01:09:00,45.0,41.4,29.48,West,278,2.0,4.0,87,0.00,,,0.00,0,Wunderground v.1.15,2013-11-01 06:09:00,
2013-11-01 01:10:00,45.0,41.4,29.48,West,277,3.0,3.0,87,0.00,,,0.00,0,Wunderground v.1.15,2013-11-01 06:10:00,
2013-11-01 01:14:00,45.1,41.5,29.48,West,279,4.0,4.0,87,0.00,,,0.00,0,Wunderground v.1.15,2013-11-01 06:14:00,
2013-11-01 01:15:00,45.1,41.5,29.48,WNW,283,3.0,4.0,87,0.00,,,0.00,0,Wunderground v.1.15,2013-11-01 06:15:00,
2013-11-01 01:20:00,45.1,41.2,29.48,WNW,295,3.0,3.0,86,0.00,,,0.00,0,Wunderground v.1.15,2013-11-01 06:20:00,
2013-11-01 01:21:00,45.1,41.2,29.48,WNW,284,5.0,5.0,86,0.00,,,0.00,0,Wunderground v.1.15,2013-11-01 06:21:00,
2013-11-01 01:22:00,45.1,41.2,29.48,WNW,284,4.0,5.0,86,0.00,,,0.00,0,Wunderground v.1.15,2013-11-01 06:22:00,
2013-11-01 01:25:00,45.0,41.1,29.48,WNW,283,3.0,5.0,86,0.00,,,0.00,0,Wunderground v.1.15,2013-11-01 06:25:00,
2013-11-01 01:27:00,44.9,41.0,29.48,WNW,286,2.0,5.0,86,0.00,,,0.00,0,Wunderground v.1.15,2013-11-01 06:27:00,
2013-11-01 01:28:00,44.9,41.0,29.48,WNW,294,2.0,5.0,86,0.00,,,0.00,0,Wunderground v.1.15,2013-11-01 06:28:00,
2013-11-01 01:29:00,44.8,40.9,29.48,West,280,3.0,5.0,86,0.00,,,0.00,0,Wunderground v.1.15,2013-11-01 06:29:00,
2013-11-01 01:34:00,44.6,40.7,29.48,West,278,4.0,5.0,86,0.00,,,0.00,0,Wunderground v.1.15,2013-11-01 06:34:00,
2013-11-01 01:35:00,44.6,40.7,29.48,West,281,5.0,5.0,86,0.00,,,0.00,0,Wunderground v.1.15,2013-11-01 06:35:00,
2013-11-01 01:36:00,44.6,40.7,29.49,West,281,2.0,5.0,86,0.00,,,0.00,0,Wunderground v.1.15,2013-11-01 06:36:00,
2013-11-01 01:38:00,44.5,40.6,29.48,West,279,2.0,5.0,86,0.00,,,0.00,0,Wunderground v.1.15,2013-11-01 06:38:00,
2013-11-01 01:41:00,44.5,40.6,29.49,WNW,289,3.0,5.0,86,0.00,,,0.00,0,Wunderground v.1.15,2013-11-01 06:41:00,
2013-11-01 01:42:00,44.4,40.5,29.49,WNW,300,5.0,5.0,86,0.00,,,0.00,0,Wunderground v.1.15,2013-11-01 06:42:00,
2013-11-01 01:43:00,44.5,40.6,29.49,WNW,294,3.0,5.0,86,0.00,,,0.00,0,Wunderground v.1.15,2013-11-01 06:43:00,
2013-11-01 01:46:00,44.5,40.6,29.49,WNW,288,4.0,5.0,86,0.00,,,0.00,0,Wunderground v.1.15,2013-11-01 06:46:00,
2013-11-01 01:48:00,44.5,40.6,29.49,WNW,284,3.0,5.0,86,0.00,,,0.00,0,Wunderground v.1.15,2013-11-01 06:48:00,
2013-11-01 01:49:00,44.5,40.6,29.49,WNW,286,4.0,5.0,86,0.00,,,0.00,0,Wunderground v.1.15,2013-11-01 06:49:00,
2013-11-01 01:52:00,44.6,40.7,29.49,West,275,5.0,5.0,86,0.00,,,0.00,0,Wunderground v.1.15,2013-11-01 06:52:00,
2013-11-01 01:55:00,44.6,40.7,29.49,West,280,6.0,6.0,86,0.00,,,0.00,0,Wunderground v.1.15,2013-11-01 06:55:00,
2013-11-01 01:57:00,44.6,40.7,29.49,West,279,4.0,6.0,86,0.00,,,0.00,0,Wunderground v.1.15,2013-11-01 06:57:00,
2013-11-01 01:58:00,44.6,40.7,29.49,West,281,4.0,6.0,86,0.00,,,0.00,0,Wunderground v.1.15,2013-11-01 06:58:00,
2013-11-01 02:01:00,44.5,40.6,29.49,WNW,286,4.0,5.0,86,0.00,,,0.00,0,Wunderground v.1.15,2013-11-01 07:01:00,
2013-11-01 02:02:00,44.5,40.6,29.49,West,277,4.0,5.0,86,0.00,,,0.00,0,Wunderground v.1.15,2013-11-01 07:02:00,
2013-11-01 02:03:00,44.5,40.6,29.49,West,275,6.0,7.0,86,0.00,,,0.00,0,Wunderground v.1.15,2013-11-01 07:03:00,
2013-11-01 02:04:00,44.5,40.6,29.49,West,279,7.0,8.0,86,0.00,,,0.00,0,Wunderground v.1.15,2013-11-01 07:04:00,
2013-11-01 02:07:00,44.5,40.6,29.49,WNW,282,6.0,10.0,86,0.00,,,0.00,0,Wunderground v.1.15,2013-11-01 07:07:00,
2013-11-01 02:08:00,44.5,40.6,29.49,West,271,6.0,10.0,86,0.00,,,0.00,0,Wunderground v.1.15,2013-11-01 07:08:00,
2013-11-01 02:09:00,44.5,40.6,29.49,WNW,287,6.0,10.0,86,0.00,,,0.00,0,Wunderground v.1.15,2013-11-01 07:09:00,
2013-11-01 02:12:00,44.5,40.6,29.50,West,281,6.0,7.0,86,0.00,,,0.00,0,Wunderground v.1.15,2013-11-01 07:12:00,
2013-11-01 02:13:00,44.5,40.6,29.50,West,273,4.0,7.0,86,0.00,,,0.00,0,Wunderground v.1.15,2013-11-01 07:13:00,
2013-11-01 02:14:00,44.5,40.6,29.50,West,278,4.0,7.0,86,0.00,,,0.00,0,Wunderground v.1.15,2013-11-01 07:14:00,
2013-11-01 02:17:00,44.4,40.5,29.50,WNW,282,5.0,7.0,86,0.00,,,0.00,0,Wunderground v.1.15,2013-11-01 07:17:00,
2013-11-01 02:18:00,44.4,40.5,29.50,West,261,5.0,7.0,86,0.00,,,0.00,0,Wunderground v.1.15,2013-11-01 07:18:00,
2013-11-01 02:19:00,44.3,40.4,29.50,West,269,5.0,7.0,86,0.00,,,0.00,0,Wunderground v.1.15,2013-11-01 07:19:00,
2013-11-01 02:20:00,44.3,40.4,29.50,WNW,282,3.0,7.0,86,0.00,,,0.00,0,Wunderground v.1.15,2013-11-01 07:20:00,
2013-11-01 02:22:00,44.2,40.3,29.50,West,277,4.0,5.0,86,0.00,,,0.00,0,Wunderground v.1.15,2013-11-01 07:22:00,
2013-11-01 02:23:00,44.1,40.2,29.50,West,274,4.0,5.0,86,0.00,,,0.00,0,Wunderground v.1.15,2013-11-01 07:23:00,
2013-11-01 02:24:00,44.1,40.5,29.50,West,269,4.0,6.0,87,0.00,,,0.00,0,Wunderground v.1.15,2013-11-01 07:24:00,
2013-11-01 02:25:00,44.0,40.1,29.50,West,279,4.0,6.0,86,0.00,,,0.00,0,Wunderground v.1.15,2013-11-01 07:25:00,
2013-11-01 02:28:00,44.0,40.4,29.50,WNW,282,4.0,8.0,87,0.00,,,0.00,0,Wunderground v.1.15,2013-11-01 07:28:00,
2013-11-01 02:29:00,44.0,40.4,29.50,WNW,284,3.0,8.0,87,0.00,,,0.00,0,Wunderground v.1.15,2013-11-01 07:29:00,
2013-11-01 02:31:00,43.9,40.3,29.50,West,276,4.0,6.0,87,0.00,,,0.00,0,Wunderground v.1.15,2013-11-01 07:31:00,
2013-11-01 02:33:00,43.9,40.3,29.50,West,263,5.0,8.0,87,0.00,,,0.00,0,Wunderground v.1.15,2013-11-01 07:33:00,
2013-11-01 02:34:00,43.9,40.3,29.50,West,271,7.0,8.0,87,0.00,,,0.00,0,Wunderground v.1.15,2013-11-01 07:34:00,
2013-11-01 02:35:00,43.9,40.3,29.51,West,266,6.0,8.0,87,0.00,,,0.00,0,Wunderground v.1.15,2013-11-01 07:35:00,
2013-11-01 02:37:00,43.9,40.6,29.50,WSW,254,8.0,8.0,88,0.00,,,0.00,0,Wunderground v.1.15,2013-11-01 07:37:00,
2013-11-01 02:38:00,43.9,40.6,29.51,West,265,6.0,8.0,88,0.00,,,0.00,0,Wunderground v.1.15,2013-11-01 07:38:00,
2013-11-01 02:39:00,43.9,40.6,29.51,West,267,5.0,8.0,88,0.00,,,0.00,0,Wunderground v.1.15,2013-11-01 07:39:00,
2013-11-01 02:40:00,43.9,40.6,29.50,West,272,5.0,8.0,88,0.00,,,0.00,0,Wunderground v.1.15,2013-11-01 07:40:00,
2013-11-01 02:42:00,43.9,40.3,29.51,West,267,6.0,10.0,87,0.00,,,0.00,0,Wunderground v.1.15,2013-11-01 07:42:00,
2013-11-01 02:43:00,43.9,40.3,29.51,West,269,6.0,10.0,87,0.00,,,0.00,0,Wunderground v.1.15,2013-11-01 07:43:00,
2013-11-01 02:45:00,43.9,40.3,29.51,West,271,4.0,10.0,87,0.00,,,0.00,0,Wunderground v.1.15,2013-11-01 07:45:00,
2013-11-01 02:46:00,43.9,40.3,29.51,West,274,8.0,10.0,87,0.00,,,0.00,0,Wunderground v.1.15,2013-11-01 07:46:00,
2013-11-01 02:47:00,43.8,40.2,29.51,West,270,4.0,10.0,87,0.00,,,0.00,0,Wunderground v.1.15,2013-11-01 07:47:00,
2013-11-01 02:49:00,43.8,40.2,29.51,West,273,4.0,10.0,87,0.00,,,0.00,0,Wunderground v.1.15,2013-11-01 07:49:00,
2013-11-01 02:50:00,43.8,40.2,29.51,West,274,7.0,10.0,87,0.00,,,0.00,0,Wunderground v.1.15,2013-11-01 07:50:00,
2013-11-01 02:51:00,43.8,40.2,29.51,West,267,7.0,8.0,87,0.00,,,0.00,0,Wunderground v.1.15,2013-11-01 07:51:00,
2013-11-01 02:52:00,43.8,40.2,29.51,West,273,10.0,10.0,87,0.00,,,0.00,0,Wunderground v.1.15,2013-11-01 07:52:00,
2013-11-01 02:54:00,43.8,40.2,29.51,West,275,8.0,10.0,87,0.00,,,0.00,0,Wunderground v.1.15,2013-11-01 07:54:00,
2013-11-01 02:55:00,43.8,40.2,29.51,West,270,7.0,10.0,87,0.00,,,0.00,0,Wunderground v.1.15,2013-11-01 07:55:00,
2013-11-01 02:56:00,43.7,40.1,29.51,West,266,7.0,11.0,87,0.00,,,0.00,0,Wunderground v.1.15,2013-11-01 07:56:00,
2013-11-01 02:58:00,43.8,40.2,29.50,West,270,9.0,11.0,87,0.00,,,0.00,0,Wunderground v.1.15,2013-11-01 07:58:00,
2013-11-01 02:59:00,43.7,40.1,29.50,West,269,7.0,12.0,87,0.00,,,0.00,0,Wunderground v.1.15,2013-11-01 07:59:00,
2013-11-01 03:00:00,43.7,40.1,29.50,West,268,8.0,8.0,87,0.00,,,0.00,0,Wunderground v.1.15,2013-11-01 08:00:00,
2013-11-01 03:02:00,43.7,40.1,29.51,WSW,257,8.0,9.0,87,0.00,,,0.00,0,Wunderground v.1.15,2013-11-01 08:02:00,
2013-11-01 03:04:00,43.6,40.0,29.51,WNW,301,5.0,9.0,87,0.00,,,0.00,0,Wunderground v.1.15,2013-11-01 08:04:00,
2013-11-01 03:05:00,43.6,40.0,29.51,West,279,5.0,10.0,87,0.00,,,0.00,0,Wunderground v.1.15,2013-11-01 08:05:00,
2013-11-01 03:06:00,43.6,40.0,29.51,West,267,9.0,10.0,87,0.00,,,0.00,0,Wunderground v.1.15,2013-11-01 08:06:00,
2013-11-01 03:08:00,43.6,40.0,29.51,West,267,8.0,10.0,87,0.00,,,0.00,0,Wunderground v.1.15,2013-11-01 08:08:00,
2013-11-01 03:09:00,43.5,39.9,29.51,West,265,6.0,10.0,87,0.00,,,0.00,0,Wunderground v.1.15,2013-11-01 08:09:00,
2013-11-01 03:11:00,43.5,39.9,29.51,West,270,7.0,9.0,87,0.00,,,0.00,0,Wunderground v.1.15,2013-11-01 08:11:00,
2013-11-01 03:12:00,43.5,39.9,29.51,WNW,289,5.0,9.0,87,0.00,,,0.00,0,Wunderground v.1.15,2013-11-01 08:12:00,
2013-11-01 03:13:00,43.5,39.9,29.51,West,273,6.0,9.0,87,0.00,,,0.00,0,Wunderground v.1.15,2013-11-01 08:13:00,
2013-11-01 03:14:00,43.5,39.9,29.51,West,271,8.0,9.0,87,0.00,,,0.00,0,Wunderground v.1.15,2013-11-01 08:14:00,
2013-11-01 03:16:00,43.4,39.8,29.51,West,267,6.0,9.0,87,0.00,,,0.00,0,Wunderground v.1.15,2013-11-01 08:16:00,
2013-11-01 03:17:00,43.4,39.8,29.51,West,275,6.0,9.0,87,0.00,,,0.00,0,Wunderground v.1.15,2013-11-01 08:17:00,
2013-11-01 03:18:00,43.4,39.8,29.51,West,270,5.0,9.0,87,0.00,,,0.00,0,Wunderground v.1.15,2013-11-01 08:18:00,
2013-11-01 03:19:00,43.4,39.8,29.51,West,271,6.0,9.0,87,0.00,,,0.00,0,Wunderground v.1.15,2013-11-01 08:19:00,
2013-11-01 03:21:00,43.3,39.7,29.51,WSW,257,6.0,9.0,87,0.00,,,0.00,0,Wunderground v.1.15,2013-11-01 08:21:00,
2013-11-01 03:23:00,43.2,39.6,29.51,WSW,258,6.0,9.0,87,0.00,,,0.00,0,Wunderground v.1.15,2013-11-01 08:23:00,
2013-11-01 03:24:00,43.1,39.5,29.51,West,270,5.0,9.0,87,0.00,,,0.00,0,Wunderground v.1.15,2013-11-01 08:24:00,
2013-11-01 03:25:00,43.1,39.5,29.51,West,263,6.0,9.0,87,0.00,,,0.00,0,Wunderground v.1.15,2013-11-01 08:25:00,
2013-11-01 03:26:00,43.0,39.4,29.51,West,260,5.0,9.0,87,0.00,,,0.00,0,Wunderground v.1.15,2013-11-01 08:26:00,
2013-11-01 03:27:00,42.9,39.3,29.51,West,259,6.0,9.0,87,0.00,,,0.00,0,Wunderground v.1.15,2013-11-01 08:27:00,
2013-11-01 03:28:00,42.9,39.6,29.51,West,277,6.0,9.0,88,0.00,,,0.00,0,Wunderground v.1.15,2013-11-01 08:28:00,
2013-11-01 03:29:00,42.9,39.6,29.51,West,264,6.0,9.0,88,0.00,,,0.00,0,Wunderground v.1.15,2013-11-01 08:29:00,
2013-11-01 03:30:00,42.8,39.5,29.51,West,268,5.0,9.0,88,0.00,,,0.00,0,Wunderground v.1.15,2013-11-01 08:30:00,
2013-11-01 03:31:00,42.8,39.5,29.51,West,265,6.0,6.0,88,0.00,,,0.00,0,Wunderground v.1.15,2013-11-01 08:31:00,
2013-11-01 03:32:00,42.7,39.4,29.51,West,269,3.0,6.0,88,0.00,,,0.00,0,Wunderground v.1.15,2013-11-01 08:32:00,
2013-11-01 03:33:00,42.7,39.4,29.51,West,266,6.0,8.0,88,0.00,,,0.00,0,Wunderground v.1.15,2013-11-01 08:33:00,
2013-11-01 03:34:00,42.6,39.3,29.51,WSW,257,7.0,8.0,88,0.00,,,0.00,0,Wunderground v.1.15,2013-11-01 08:34:00,
2013-11-01 03:35:00,42.6,39.3,29.51,WSW,253,5.0,8.0,88,0.00,,,0.00,0,Wunderground v.1.15,2013-11-01 08:35:00,
2013-11-01 03:37:00,42.5,39.2,29.52,West,270,5.0,8.0,88,0.00,,,0.00,0,Wunderground v.1.15,2013-11-01 08:37:00,
2013-11-01 03:38:00,42.5,39.2,29.52,West,265,4.0,8.0,88,0.00,,,0.00,0,Wunderground v.1.15,2013-11-01 08:38:00,
2013-11-01 03:39:00,42.4,39.1,29.52,West,262,5.0,8.0,88,0.00,,,0.00,0,Wunderground v.1.15,2013-11-01 08:39:00,
2013-11-01 03:41:00,42.4,39.4,29.52,West,270,7.0,8.0,89,0.00,,,0.00,0,Wunderground v.1.15,2013-11-01 08:41:00,
2013-11-01 03:42:00,42.3,39.3,29.52,West,261,6.0,8.0,89,0.00,,,0.00,0,Wunderground v.1.15,2013-11-01 08:42:00,
2013-11-01 03:43:00,42.3,39.3,29.52,West,269,7.0,8.0,89,0.00,,,0.00,0,Wunderground v.1.15,2013-11-01 08:43:00,
2013-11-01 03:44:00,42.3,39.3,29.52,West,266,5.0,8.0,89,0.00,,,0.00,0,Wunderground v.1.15,2013-11-01 08:44:00,
2013-11-01 03:46:00,42.3,39.3,29.52,West,271,4.0,8.0,89,0.00,,,0.00,0,Wunderground v.1.15,2013-11-01 08:46:00,
2013-11-01 03:47:00,42.3,39.3,29.52,West,271,4.0,8.0,89,0.00,,,0.00,0,Wunderground v.1.15,2013-11-01 08:47:00,
2013-11-01 03:48:00,42.3,39.3,29.52,West,263,6.0,8.0,89,0.00,,,0.00,0,Wunderground v.1.15,2013-11-01 08:48:00,
2013-11-01 03:49:00,42.2,39.2,29.52,West,263,6.0,8.0,89,0.00,,,0.00,0,Wunderground v.1.15,2013-11-01 08:49:00,
2013-11-01 03:52:00,42.2,39.2,29.52,West,274,4.0,8.0,89,0.00,,,0.00,0,Wunderground v.1.15,2013-11-01 08:52:00,
2013-11-01 03:53:00,42.2,39.2,29.52,West,271,7.0,8.0,89,0.00,,,0.00,0,Wunderground v.1.15,2013-11-01 08:53:00,
2013-11-01 03:54:00,42.2,39.2,29.52,West,267,5.0,8.0,89,0.00,,,0.00,0,Wunderground v.1.15,2013-11-01 08:54:00,
2013-11-01 03:55:00,42.2,39.5,29.53,West,268,4.0,8.0,90,0.00,,,0.00,0,Wunderground v.1.15,2013-11-01 08:55:00,
2013-11-01 03:57:00,42.2,39.5,29.53,West,268,5.0,8.0,90,0.00,,,0.00,0,Wunderground v.1.15,2013-11-01 08:57:00,
2013-11-01 03:58:00,42.1,39.4,29.53,West,267,5.0,8.0,90,0.00,,,0.00,0,Wunderground v.1.15,2013-11-01 08:58:00,
2013-11-01 03:59:00,42.1,39.4,29.53,West,263,7.0,8.0,90,0.00,,,0.00,0,Wunderground v.1.15,2013-11-01 08:59:00,
2013-11-01 04:00:00,42.1,39.4,29.53,West,265,5.0,8.0,90,0.00,,,0.00,0,Wunderground v.1.15,2013-11-01 09:00:00,
2013-11-01 04:02:00,42.1,39.4,29.53,West,272,6.0,7.0,90,0.00,,,0.00,0,Wunderground v.1.15,2013-11-01 09:02:00,
2013-11-01 04:04:00,42.0,39.3,29.53,West,277,7.0,7.0,90,0.00,,,0.00,0,Wunderground v.1.15,2013-11-01 09:04:00,
2013-11-01 04:05:00,42.0,39.3,29.53,WSW,257,6.0,10.0,90,0.00,,,0.00,0,Wunderground v.1.15,2013-11-01 09:05:00,
2013-11-01 04:07:00,42.0,39.3,29.53,West,260,7.0,11.0,90,0.00,,,0.00,0,Wunderground v.1.15,2013-11-01 09:07:00,
2013-11-01 04:08:00,42.0,39.3,29.53,West,267,7.0,11.0,90,0.00,,,0.00,0,Wunderground v.1.15,2013-11-01 09:08:00,
2013-11-01 04:09:00,42.0,39.3,29.53,West,265,6.0,11.0,90,0.00,,,0.00,0,Wunderground v.1.15,2013-11-01 09:09:00,
2013-11-01 04:10:00,42.0,39.3,29.53,West,268,8.0,11.0,90,0.00,,,0.00,0,Wunderground v.1.15,2013-11-01 09:10:00,
2013-11-01 04:11:00,42.0,39.3,29.53,West,267,6.0,9.0,90,0.00,,,0.00,0,Wunderground v.1.15,2013-11-01 09:11:00,
2013-11-01 04:13:00,42.0,39.3,29.53,West,267,5.0,9.0,90,0.00,,,0.00,0,Wunderground v.1.15,2013-11-01 09:13:00,
2013-11-01 04:15:00,42.0,39.3,29.53,West,261,6.0,9.0,90,0.00,,,0.00,0,Wunderground v.1.15,2013-11-01 09:15:00,
2013-11-01 04:17:00,41.9,39.2,29.53,West,259,7.0,11.0,90,0.00,,,0.00,0,Wunderground v.1.15,2013-11-01 09:17:00,
2013-11-01 04:18:00,42.0,39.3,29.54,West,265,8.0,11.0,90,0.00,,,0.00,0,Wunderground v.1.15,2013-11-01 09:18:00,
2013-11-01 04:19:00,41.9,39.2,29.54,WSW,252,9.0,11.0,90,0.00,,,0.00,0,Wunderground v.1.15,2013-11-01 09:19:00,
2013-11-01 04:20:00,41.9,39.2,29.54,West,266,10.0,11.0,90,0.00,,,0.00,0,Wunderground v.1.15,2013-11-01 09:20:00,
2013-11-01 04:22:00,41.9,39.2,29.54,WNW,285,8.0,10.0,90,0.00,,,0.00,0,Wunderground v.1.15,2013-11-01 09:22:00,
2013-11-01 04:23:00,41.9,39.2,29.54,West,277,5.0,10.0,90,0.00,,,0.00,0,Wunderground v.1.15,2013-11-01 09:23:00,
2013-11-01 04:24:00,41.9,39.2,29.54,West,269,6.0,10.0,90,0.00,,,0.00,0,Wunderground v.1.15,2013-11-01 09:24:00,
2013-11-01 04:25:00,41.9,38.9,29.54,West,277,9.0,10.0,89,0.00,,,0.00,0,Wunderground v.1.15,2013-11-01 09:25:00,
2013-11-01 04:26:00,41.9,38.9,29.53,West,275,6.0,10.0,89,0.00,,,0.00,0,Wunderground v.1.15,2013-11-01 09:26:00,
2013-11-01 04:27:00,41.9,38.9,29.54,West,273,6.0,10.0,89,0.00,,,0.00,0,Wunderground v.1.15,2013-11-01 09:27:00,
2013-11-01 04:28:00,41.9,38.9,29.54,West,273,6.0,10.0,89,0.00,,,0.00,0,Wunderground v.1.15,2013-11-01 09:28:00,
2013-11-01 04:29:00,41.9,38.9,29.54,West,263,6.0,10.0,89,0.00,,,0.00,0,Wunderground v.1.15,2013-11-01 09:29:00,
2013-11-01 04:31:00,41.9,38.9,29.54,West,269,5.0,8.0,89,0.00,,,0.00,0,Wunderground v.1.15,2013-11-01 09:31:00,
2013-11-01 04:32:00,41.9,38.9,29.54,West,265,8.0,10.0,89,0.00,,,0.00,0,Wunderground v.1.15,2013-11-01 09:32:00,
2013-11-01 04:33:00,41.9,38.9,29.54,West,266,8.0,10.0,89,0.00,,,0.00,0,Wunderground v.1.15,2013-11-01 09:33:00,
2013-11-01 04:35:00,41.9,38.9,29.54,West,272,7.0,10.0,89,0.00,,,0.00,0,Wunderground v.1.15,2013-11-01 09:35:00,
2013-11-01 04:36:00,41.9,38.9,29.54,West,281,7.0,10.0,89,0.00,,,0.00,0,Wunderground v.1.15,2013-11-01 09:36:00,
2013-11-01 04:37:00,41.9,38.9,29.54,West,278,5.0,10.0,89,0.00,,,0.00,0,Wunderground v.1.15,2013-11-01 09:37:00,
2013-11-01 04:38:00,41.9,38.9,29.54,West,277,7.0,10.0,89,0.00,,,0.00,0,Wunderground v.1.15,2013-11-01 09:38:00,
2013-11-01 04:40:00,41.8,38.8,29.54,West,275,7.0,8.0,89,0.00,,,0.00,0,Wunderground v.1.15,2013-11-01 09:40:00,
2013-11-01 04:42:00,41.8,38.8,29.54,West,277,8.0,9.0,89,0.00,,,0.00,0,Wunderground v.1.15,2013-11-01 09:42:00,
2013-11-01 04:43:00,41.7,38.7,29.54,West,274,8.0,11.0,89,0.00,,,0.00,0,Wunderground v.1.15,2013-11-01 09:43:00,
2013-11-01 04:44:00,41.7,38.7,29.54,WNW,284,6.0,11.0,89,0.00,,,0.00,0,Wunderground v.1.15,2013-11-01 09:44:00,
2013-11-01 04:46:00,41.6,38.6,29.54,West,273,6.0,11.0,89,0.00,,,0.00,0,Wunderground v.1.15,2013-11-01 09:46:00,
2013-11-01 04:47:00,41.6,38.6,29.54,West,271,9.0,11.0,89,0.00,,,0.00,0,Wunderground v.1.15,2013-11-01 09:47:00,
2013-11-01 04:48:00,41.6,38.6,29.54,West,278,5.0,11.0,89,0.00,,,0.00,0,Wunderground v.1.15,2013-11-01 09:48:00,
2013-11-01 04:49:00,41.5,38.5,29.54,WNW,283,5.0,11.0,89,0.00,,,0.00,0,Wunderground v.1.15,2013-11-01 09:49:00,
2013-11-01 04:51:00,41.4,38.4,29.55,West,270,9.0,9.0,89,0.00,,,0.00,0,Wunderground v.1.15,2013-11-01 09:51:00,
2013-11-01 04:52:00,41.4,38.4,29.54,West,281,6.0,9.0,89,0.00,,,0.00,0,Wunderground v.1.15,2013-11-01 09:52:00,
2013-11-01 04:53:00,41.3,38.3,29.54,West,273,7.0,9.0,89,0.00,,,0.00,0,Wunderground v.1.15,2013-11-01 09:53:00,
2013-11-01 04:54:00,41.3,38.3,29.54,West,281,5.0,9.0,89,0.00,,,0.00,0,Wunderground v.1.15,2013-11-01 09:54:00,
2013-11-01 04:56:00,41.2,38.2,29.55,WNW,283,7.0,9.0,89,0.00,,,0.00,0,Wunderground v.1.15,2013-11-01 09:56:00,
2013-11-01 04:57:00,41.1,38.1,29.55,West,277,6.0,9.0,89,0.00,,,0.00,0,Wunderground v.1.15,2013-11-01 09:57:00,
2013-11-01 04:58:00,41.1,38.1,29.55,West,262,7.0,9.0,89,0.00,,,0.00,0,Wunderground v.1.15,2013-11-01 09:58:00,
2013-11-01 04:59:00,41.1,38.1,29.55,West,281,4.0,9.0,89,0.00,,,0.00,0,Wunderground v.1.15,2013-11-01 09:59:00,
2013-11-01 05:01:00,41.0,38.0,29.55,West,279,7.0,7.0,89,0.00,,,0.00,0,Wunderground v.1.15,2013-11-01 10:01:00,
2013-11-01 05:02:00,41.0,38.3,29.55,West,274,5.0,8.0,90,0.00,,,0.00,0,Wunderground v.1.15,2013-11-01 10:02:00,
2013-11-01 05:03:00,41.0,38.3,29.55,West,274,5.0,9.0,90,0.00,,,0.00,0,Wunderground v.1.15,2013-11-01 10:03:00,
2013-11-01 05:04:00,41.0,38.3,29.55,West,275,5.0,9.0,90,0.00,,,0.00,0,Wunderground v.1.15,2013-11-01 10:04:00,
2013-11-01 05:07:00,41.0,38.3,29.55,West,278,3.0,9.0,90,0.00,,,0.00,0,Wunderground v.1.15,2013-11-01 10:07:00,
2013-11-01 05:09:00,40.9,38.2,29.55,West,275,5.0,9.0,90,0.00,,,0.00,0,Wunderground v.1.15,2013-11-01 10:09:00,
2013-11-01 05:10:00,40.9,38.2,29.55,WNW,286,7.0,9.0,90,0.00,,,0.00,0,Wunderground v.1.15,2013-11-01 10:10:00,
2013-11-01 05:12:00,40.8,38.1,29.55,West,279,4.0,9.0,90,0.00,,,0.00,0,Wunderground v.1.15,2013-11-01 10:12:00,
2013-11-01 05:14:00,40.7,38.0,29.55,West,273,5.0,9.0,90,0.00,,,0.00,0,Wunderground v.1.15,2013-11-01 10:14:00,
2013-11-01 05:15:00,40.7,38.0,29.55,West,281,3.0,9.0,90,0.00,,,0.00,0,Wunderground v.1.15,2013-11-01 10:15:00,
2013-11-01 05:16:00,40.7,38.0,29.55,WNW,284,6.0,9.0,90,0.00,,,0.00,0,Wunderground v.1.15,2013-11-01 10:16:00,
2013-11-01 05:17:00,40.6,37.9,29.55,WNW,290,4.0,9.0,90,0.00,,,0.00,0,Wunderground v.1.15,2013-11-01 10:17:00,
2013-11-01 05:18:00,40.6,37.9,29.55,WNW,291,5.0,9.0,90,0.00,,,0.00,0,Wunderground v.1.15,2013-11-01 10:18:00,
2013-11-01 05:19:00,40.5,37.8,29.55,West,277,6.0,9.0,90,0.00,,,0.00,0,Wunderground v.1.15,2013-11-01 10:19:00,
2013-11-01 05:20:00,40.5,37.8,29.55,WNW,283,4.0,9.0,90,0.00,,,0.00,0,Wunderground v.1.15,2013-11-01 10:20:00,
2013-11-01 05:21:00,40.5,37.8,29.55,WNW,282,4.0,8.0,90,0.00,,,0.00,0,Wunderground v.1.15,2013-11-01 10:21:00,
2013-11-01 05:23:00,40.4,37.7,29.56,WNW,290,4.0,8.0,90,0.00,,,0.00,0,Wunderground v.1.15,2013-11-01 10:23:00,
2013-11-01 05:24:00,40.4,37.7,29.56,West,265,8.0,8.0,90,0.00,,,0.00,0,Wunderground v.1.15,2013-11-01 10:24:00,
2013-11-01 05:25:00,40.4,37.7,29.56,West,278,6.0,8.0,90,0.00,,,0.00,0,Wunderground v.1.15,2013-11-01 10:25:00,
2013-11-01 05:26:00,40.3,37.6,29.56,West,278,7.0,8.0,90,0.00,,,0.00,0,Wunderground v.1.15,2013-11-01 10:26:00,
2013-11-01 05:28:00,40.3,37.6,29.56,WNW,290,6.0,8.0,90,0.00,,,0.00,0,Wunderground v.1.15,2013-11-01 10:28:00,
2013-11-01 05:29:00,40.3,37.6,29.56,WNW,290,8.0,10.0,90,0.00,,,0.00,0,Wunderground v.1.15,2013-11-01 10:29:00,
2013-11-01 05:30:00,40.4,37.7,29.56,WNW,288,5.0,6.0,90,0.00,,,0.00,0,Wunderground v.1.15,2013-11-01 10:30:00,
2013-11-01 05:32:00,40.4,37.7,29.56,WNW,288,3.0,8.0,90,0.00,,,0.00,0,Wunderground v.1.15,2013-11-01 10:32:00,
2013-11-01 05:33:00,40.4,37.7,29.56,West,281,5.0,9.0,90,0.00,,,0.00,0,Wunderground v.1.15,2013-11-01 10:33:00,
2013-11-01 05:35:00,40.4,37.7,29.56,West,281,8.0,9.0,90,0.00,,,0.00,0,Wunderground v.1.15,2013-11-01 10:35:00,
2013-11-01 05:37:00,40.4,37.7,29.56,WNW,284,4.0,9.0,90,0.00,,,0.00,0,Wunderground v.1.15,2013-11-01 10:37:00,
2013-11-01 05:38:00,40.4,37.7,29.56,WNW,284,4.0,9.0,90,0.00,,,0.00,0,Wunderground v.1.15,2013-11-01 10:38:00,
2013-11-01 05:41:00,40.3,37.6,29.56,WNW,289,4.0,7.0,90,0.00,,,0.00,0,Wunderground v.1.15,2013-11-01 10:41:00,
2013-11-01 05:42:00,40.3,37.6,29.56,WNW,282,5.0,10.0,90,0.00,,,0.00,0,Wunderground v.1.15,2013-11-01 10:42:00,
2013-11-01 05:43:00,40.2,37.5,29.56,WNW,284,4.0,10.0,90,0.00,,,0.00,0,Wunderground v.1.15,2013-11-01 10:43:00,
2013-11-01 05:46:00,40.2,37.5,29.56,West,281,7.0,10.0,90,0.00,,,0.00,0,Wunderground v.1.15,2013-11-01 10:46:00,
2013-11-01 05:47:00,40.1,37.4,29.57,WNW,293,6.0,10.0,90,0.00,,,0.00,0,Wunderground v.1.15,2013-11-01 10:47:00,
2013-11-01 05:49:00,40.1,37.4,29.57,WNW,288,7.0,10.0,90,0.00,,,0.00,0,Wunderground v.1.15,2013-11-01 10:49:00,
2013-11-01 05:51:00,40.1,37.4,29.57,WNW,301,6.0,8.0,90,0.00,,,0.00,0,Wunderground v.1.15,2013-11-01 10:51:00,
2013-11-01 05:52:00,40.1,37.4,29.57,WNW,301,5.0,8.0,90,0.00,,,0.00,0,Wunderground v.1.15,2013-11-01 10:52:00,
2013-11-01 05:54:00,40.1,37.4,29.57,WNW,292,6.0,8.0,90,0.00,,,0.00,0,Wunderground v.1.15,2013-11-01 10:54:00,
2013-11-01 05:56:00,40.1,37.4,29.57,WNW,286,7.0,8.0,90,0.00,,,0.00,0,Wunderground v.1.15,2013-11-01 10:56:00,
2013-11-01 05:57:00,40.1,37.4,29.57,West,281,5.0,8.0,90,0.00,,,0.00,0,Wunderground v.1.15,2013-11-01 10:57:00,
2013-11-01 05:59:00,40.0,37.3,29.57,WNW,286,7.0,8.0,90,0.00,,,0.00,0,Wunderground v.1.15,2013-11-01 10:59:00,
2013-11-01 06:01:00,40.0,37.3,29.57,WNW,290,5.0,8.0,90,0.00,,,0.00,0,Wunderground v.1.15,2013-11-01 11:01:00,
2013-11-01 06:03:00,40.0,37.6,29.57,WNW,282,7.0,8.0,91,0.00,,,0.00,0,Wunderground v.1.15,2013-11-01 11:03:00,
2013-11-01 06:04:00,39.9,37.2,29.57,West,279,6.0,8.0,90,0.00,,,0.00,0,Wunderground v.1.15,2013-11-01 11:04:00,
2013-11-01 06:06:00,39.9,37.2,29.57,WNW,300,6.0,8.0,90,0.00,,,0.00,0,Wunderground v.1.15,2013-11-01 11:06:00,
2013-11-01 06:07:00,39.9,37.2,29.57,WNW,288,7.0,8.0,90,0.00,,,0.00,0,Wunderground v.1.15,2013-11-01 11:07:00,
2013-11-01 06:08:00,39.8,37.1,29.58,WNW,292,5.0,8.0,90,0.00,,,0.00,0,Wunderground v.1.15,2013-11-01 11:08:00,
2013-11-01 06:09:00,39.8,37.1,29.58,WNW,288,4.0,8.0,90,0.00,,,0.00,0,Wunderground v.1.15,2013-11-01 11:09:00,
2013-11-01 06:10:00,39.8,37.1,29.58,WNW,297,4.0,8.0,90,0.00,,,0.00,0,Wunderground v.1.15,2013-11-01 11:10:00,
2013-11-01 06:11:00,39.8,37.1,29.58,WNW,292,5.0,6.0,90,0.00,,,0.00,0,Wunderground v.1.15,2013-11-01 11:11:00,
2013-11-01 06:12:00,39.7,37.0,29.58,WNW,293,5.0,6.0,90,0.00,,,0.00,0,Wunderground v.1.15,2013-11-01 11:12:00,
2013-11-01 06:13:00,39.7,37.3,29.58,WNW,290,4.0,6.0,91,0.00,,,0.00,0,Wunderground v.1.15,2013-11-01 11:13:00,
2013-11-01 06:14:00,39.7,37.3,29.58,WNW,290,5.0,6.0,91,0.00,,,0.00,0,Wunderground v.1.15,2013-11-01 11:14:00,
2013-11-01 06:15:00,39.6,37.2,29.58,WNW,288,4.0,6.0,91,0.00,,,0.00,0,Wunderground v.1.15,2013-11-01 11:15:00,
2013-11-01 06:16:00,39.6,37.2,29.58,WNW,296,6.0,7.0,91,0.00,,,0.00,0,Wunderground v.1.15,2013-11-01 11:16:00,
2013-11-01 06:17:00,39.6,37.2,29.58,WNW,287,4.0,7.0,91,0.00,,,0.00,0,Wunderground v.1.15,2013-11-01 11:17:00,
2013-11-01 06:19:00,39.5,37.1,29.58,WNW,290,3.0,7.0,91,0.00,,,0.00,0,Wunderground v.1.15,2013-11-01 11:19:00,
2013-11-01 06:20:00,39.5,37.1,29.58,WNW,288,3.0,4.0,91,0.00,,,0.00,0,Wunderground v.1.15,2013-11-01 11:20:00,
2013-11-01 06:21:00,39.5,37.1,29.58,West,279,5.0,6.0,91,0.00,,,0.00,0,Wunderground v.1.15,2013-11-01 11:21:00,
2013-11-01 06:22:00,39.5,37.1,29.58,West,281,4.0,6.0,91,0.00,,,0.00,0,Wunderground v.1.15,2013-11-01 11:22:00,
2013-11-01 06:24:00,39.4,37.0,29.58,West,280,3.0,6.0,91,0.00,,,0.00,0,Wunderground v.1.15,2013-11-01 11:24:00,
2013-11-01 06:25:00,39.5,37.1,29.58,West,277,4.0,6.0,91,0.00,,,0.00,0,Wunderground v.1.15,2013-11-01 11:25:00,
2013-11-01 06:26:00,39.4,37.0,29.58,WNW,283,3.0,6.0,91,0.00,,,0.00,0,Wunderground v.1.15,2013-11-01 11:26:00,
2013-11-01 06:27:00,39.5,37.1,29.58,WNW,287,3.0,6.0,91,0.00,,,0.00,0,Wunderground v.1.15,2013-11-01 11:27:00,
2013-11-01 06:28:00,39.5,37.1,29.58,WNW,286,4.0,8.0,91,0.00,,,0.00,0,Wunderground v.1.15,2013-11-01 11:28:00,
2013-11-01 06:29:00,39.5,37.1,29.58,NW,306,7.0,8.0,91,0.00,,,0.00,0,Wunderground v.1.15,2013-11-01 11:29:00,
2013-11-01 06:31:00,39.6,37.2,29.58,WNW,285,3.0,5.0,91,0.00,,,0.00,0,Wunderground v.1.15,2013-11-01 11:31:00,
2013-11-01 06:32:00,39.6,37.2,29.58,WNW,301,5.0,5.0,91,0.00,,,0.00,0,Wunderground v.1.15,2013-11-01 11:32:00,
2013-11-01 06:33:00,39.6,37.2,29.58,WNW,296,3.0,5.0,91,0.00,,,0.00,0,Wunderground v.1.15,2013-11-01 11:33:00,
2013-11-01 06:34:00,39.6,37.2,29.58,WNW,298,6.0,7.0,91,0.00,,,0.00,0,Wunderground v.1.15,2013-11-01 11:34:00,
2013-11-01 06:36:00,39.7,37.3,29.58,WNW,298,3.0,7.0,91,0.00,,,0.00,0,Wunderground v.1.15,2013-11-01 11:36:00,
2013-11-01 06:37:00,39.7,37.3,29.58,NW,304,4.0,7.0,91,0.00,,,0.00,0,Wunderground v.1.15,2013-11-01 11:37:00,
2013-11-01 06:38:00,39.7,37.3,29.58,WNW,286,4.0,7.0,91,0.00,,,0.00,0,Wunderground v.1.15,2013-11-01 11:38:00,
2013-11-01 06:39:00,39.7,37.3,29.58,WNW,282,4.0,7.0,91,0.00,,,0.00,0,Wunderground v.1.15,2013-11-01 11:39:00,
2013-11-01 06:41:00,39.7,37.3,29.58,West,275,5.0,7.0,91,0.00,,,0.00,0,Wunderground v.1.15,2013-11-01 11:41:00,
2013-11-01 06:42:00,39.8,37.4,29.58,WNW,285,3.0,7.0,91,0.00,,,0.00,0,Wunderground v.1.15,2013-11-01 11:42:00,
2013-11-01 06:43:00,39.8,37.4,29.58,WNW,284,5.0,7.0,91,0.00,,,0.00,0,Wunderground v.1.15,2013-11-01 11:43:00,
2013-11-01 06:44:00,39.8,37.7,29.58,West,277,4.0,9.0,92,0.00,,,0.00,0,Wunderground v.1.15,2013-11-01 11:44:00,
2013-11-01 06:45:00,39.8,37.7,29.58,WNW,285,3.0,9.0,92,0.00,,,0.00,0,Wunderground v.1.15,2013-11-01 11:45:00,
2013-11-01 06:46:00,39.8,37.7,29.59,West,281,7.0,9.0,92,0.00,,,0.00,0,Wunderground v.1.15,2013-11-01 11:46:00,
2013-11-01 06:48:00,39.9,37.8,29.59,WNW,296,4.0,9.0,92,0.00,,,0.00,0,Wunderground v.1.15,2013-11-01 11:48:00,
2013-11-01 06:49:00,39.9,37.8,29.58,WNW,297,5.0,9.0,92,0.00,,,0.00,0,Wunderground v.1.15,2013-11-01 11:49:00,
2013-11-01 06:50:00,39.9,37.8,29.58,WNW,290,6.0,9.0,92,0.00,,,0.00,0,Wunderground v.1.15,2013-11-01 11:50:00,
2013-11-01 06:52:00,40.0,37.9,29.59,WNW,301,5.0,8.0,92,0.00,,,0.00,0,Wunderground v.1.15,2013-11-01 11:52:00,
2013-11-01 06:53:00,40.0,37.9,29.59,WNW,292,3.0,8.0,92,0.00,,,0.00,0,Wunderground v.1.15,2013-11-01 11:53:00,
2013-11-01 06:55:00,40.0,37.9,29.59,WNW,287,5.0,8.0,92,0.00,,,0.00,0,Wunderground v.1.15,2013-11-01 11:55:00,
2013-11-01 06:56:00,40.1,38.0,29.59,WNW,286,4.0,8.0,92,0.00,,,0.00,0,Wunderground v.1.15,2013-11-01 11:56:00,
2013-11-01 06:57:00,40.0,37.9,29.59,WNW,296,5.0,8.0,92,0.00,,,0.00,0,Wunderground v.1.15,2013-11-01 11:57:00,
2013-11-01 06:58:00,40.1,38.0,29.59,WNW,288,6.0,8.0,92,0.00,,,0.00,0,Wunderground v.1.15,2013-11-01 11:58:00,
2013-11-01 06:59:00,40.0,37.9,29.59,WNW,293,5.0,8.0,92,0.00,,,0.00,0,Wunderground v.1.15,2013-11-01 11:59:00,
2013-11-01 07:00:00,40.0,37.9,29.59,WNW,292,4.0,8.0,92,0.00,,,0.00,0,Wunderground v.1.15,2013-11-01 12:00:00,
2013-11-01 07:01:00,40.1,38.0,29.59,WNW,289,3.0,8.0,92,0.00,,,0.00,0,Wunderground v.1.15,2013-11-01 12:01:00,
2013-11-01 07:03:00,40.1,38.0,29.59,WNW,300,6.0,9.0,92,0.00,,,0.00,0,Wunderground v.1.15,2013-11-01 12:03:00,
2013-11-01 07:04:00,40.1,38.0,29.59,WNW,289,4.0,9.0,92,0.00,,,0.00,0,Wunderground v.1.15,2013-11-01 12:04:00,
2013-11-01 07:05:00,40.1,38.0,29.59,WNW,292,6.0,9.0,92,0.00,,,0.00,0,Wunderground v.1.15,2013-11-01 12:05:00,
2013-11-01 07:07:00,40.1,38.0,29.60,WNW,288,6.0,9.0,92,0.00,,,0.00,0,Wunderground v.1.15,2013-11-01 12:07:00,
2013-11-01 07:08:00,40.1,38.0,29.60,WNW,291,6.0,9.0,92,0.00,,,0.00,0,Wunderground v.1.15,2013-11-01 12:08:00,
2013-11-01 07:09:00,40.1,38.0,29.60,WNW,292,6.0,9.0,92,0.00,,,0.00,0,Wunderground v.1.15,2013-11-01 12:09:00,
2013-11-01 07:10:00,40.1,38.0,29.60,WNW,282,4.0,5.0,92,0.00,,,0.00,0,Wunderground v.1.15,2013-11-01 12:10:00,
2013-11-01 07:12:00,40.0,37.9,29.60,WNW,285,7.0,9.0,92,0.00,,,0.00,0,Wunderground v.1.15,2013-11-01 12:12:00,
2013-11-01 07:13:00,40.0,37.9,29.60,WNW,296,5.0,9.0,92,0.00,,,0.00,0,Wunderground v.1.15,2013-11-01 12:13:00,
2013-11-01 07:14:00,40.0,37.6,29.60,WNW,288,4.0,9.0,91,0.00,,,0.00,0,Wunderground v.1.15,2013-11-01 12:14:00,
2013-11-01 07:15:00,40.0,37.6,29.60,WNW,296,4.0,9.0,91,0.00,,,0.00,0,Wunderground v.1.15,2013-11-01 12:15:00,
2013-11-01 07:17:00,40.0,37.6,29.60,WNW,286,7.0,9.0,91,0.00,,,0.00,0,Wunderground v.1.15,2013-11-01 12:17:00,
2013-11-01 07:19:00,40.0,37.6,29.60,WNW,284,6.0,9.0,91,0.00,,,0.00,0,Wunderground v.1.15,2013-11-01 12:19:00,
2013-11-01 07:20:00,40.0,37.6,29.60,WNW,294,5.0,5.0,91,0.00,,,0.00,0,Wunderground v.1.15,2013-11-01 12:20:00,
2013-11-01 07:21:00,40.0,37.6,29.60,WNW,286,4.0,6.0,91,0.00,,,0.00,0,Wunderground v.1.15,2013-11-01 12:21:00,
2013-11-01 07:23:00,40.0,37.6,29.60,West,281,4.0,6.0,91,0.00,,,0.00,0,Wunderground v.1.15,2013-11-01 12:23:00,
2013-11-01 07:24:00,39.9,37.5,29.60,WNW,292,5.0,6.0,91,0.00,,,0.00,0,Wunderground v.1.15,2013-11-01 12:24:00,
2013-11-01 07:25:00,39.9,37.5,29.60,WNW,286,4.0,6.0,91,0.00,,,0.00,0,Wunderground v.1.15,2013-11-01 12:25:00,
2013-11-01 07:26:00,39.8,37.4,29.60,WNW,287,3.0,6.0,91,0.00,,,0.00,0,Wunderground v.1.15,2013-11-01 12:26:00,
2013-11-01 07:28:00,39.8,37.4,29.60,WNW,296,2.0,6.0,91,0.00,,,0.00,0,Wunderground v.1.15,2013-11-01 12:28:00,
2013-11-01 07:29:00,39.7,37.3,29.60,WNW,283,2.0,6.0,91,0.00,,,0.00,0,Wunderground v.1.15,2013-11-01 12:29:00,
2013-11-01 07:31:00,39.7,37.3,29.60,WNW,288,1.0,4.0,91,0.00,,,0.00,0,Wunderground v.1.15,2013-11-01 12:31:00,
2013-11-01 07:34:00,39.6,37.2,29.60,WNW,288,3.0,6.0,91,0.00,,,0.00,0,Wunderground v.1.15,2013-11-01 12:34:00,
2013-11-01 07:35:00,39.5,37.1,29.60,WNW,284,4.0,6.0,91,0.00,,,0.00,0,Wunderground v.1.15,2013-11-01 12:35:00,
2013-11-01 07:36:00,39.5,37.1,29.60,WNW,286,2.0,6.0,91,0.00,,,0.00,0,Wunderground v.1.15,2013-11-01 12:36:00,
2013-11-01 07:39:00,39.3,36.9,29.60,West,279,2.0,6.0,91,0.00,,,0.00,0,Wunderground v.1.15,2013-11-01 12:39:00,
2013-11-01 07:40:00,39.3,36.9,29.60,WNW,282,2.0,3.0,91,0.00,,,0.00,0,Wunderground v.1.15,2013-11-01 12:40:00,
2013-11-01 07:41:00,39.3,36.9,29.60,WNW,283,0.0,3.0,91,0.00,,,0.00,0,Wunderground v.1.15,2013-11-01 12:41:00,
2013-11-01 07:45:00,39.1,36.7,29.60,West,276,2.0,5.0,91,0.00,,,0.00,0,Wunderground v.1.15,2013-11-01 12:45:00,
2013-11-01 07:46:00,39.0,36.6,29.60,West,277,2.0,5.0,91,0.00,,,0.00,0,Wunderground v.1.15,2013-11-01 12:46:00,
2013-11-01 07:47:00,38.9,36.5,29.60,West,277,1.0,5.0,91,0.00,,,0.00,0,Wunderground v.1.15,2013-11-01 12:47:00,
2013-11-01 07:50:00,38.7,36.3,29.60,WNW,286,3.0,5.0,91,0.00,,,0.00,5,Wunderground v.1.15,2013-11-01 12:50:00,
2013-11-01 07:51:00,38.5,36.1,29.60,WNW,285,2.0,4.0,91,0.00,,,0.00,5,Wunderground v.1.15,2013-11-01 12:51:00,
2013-11-01 07:53:00,38.4,36.3,29.60,WNW,284,1.0,4.0,92,0.00,,,0.00,7,Wunderground v.1.15,2013-11-01 12:53:00,
2013-11-01 07:55:00,38.4,36.3,29.61,West,281,2.0,5.0,92,0.00,,,0.00,11,Wunderground v.1.15,2013-11-01 12:55:00,
2013-11-01 07:56:00,38.4,36.3,29.61,West,281,2.0,5.0,92,0.00,,,0.00,12,Wunderground v.1.15,2013-11-01 12:56:00,
2013-11-01 07:58:00,38.4,36.3,29.61,West,279,3.0,5.0,92,0.00,,,0.00,12,Wunderground v.1.15,2013-11-01 12:58:00,
2013-11-01 08:00:00,38.4,36.3,29.61,West,273,3.0,5.0,92,0.00,,,0.00,16,Wunderground v.1.15,2013-11-01 13:00:00,
2013-11-01 08:02:00,38.5,36.7,29.61,West,269,5.0,5.0,93,0.00,,,0.00,18,Wunderground v.1.15,2013-11-01 13:02:00,
2013-11-01 08:03:00,38.5,36.7,29.61,WNW,284,5.0,5.0,93,0.00,,,0.00,18,Wunderground v.1.15,2013-11-01 13:03:00,
2013-11-01 08:05:00,38.6,36.8,29.62,West,269,5.0,8.0,93,0.00,,,0.00,19,Wunderground v.1.15,2013-11-01 13:05:00,
2013-11-01 08:06:00,38.7,36.9,29.62,West,271,5.0,8.0,93,0.00,,,0.00,21,Wunderground v.1.15,2013-11-01 13:06:00,
2013-11-01 08:07:00,38.7,36.9,29.62,West,268,4.0,8.0,93,0.00,,,0.00,21,Wunderground v.1.15,2013-11-01 13:07:00,
2013-11-01 08:08:00,38.8,36.9,29.62,WNW,284,5.0,9.0,93,0.00,,,0.00,26,Wunderground v.1.15,2013-11-01 13:08:00,
2013-11-01 08:10:00,38.9,37.0,29.62,West,277,7.0,9.0,93,0.00,,,0.00,28,Wunderground v.1.15,2013-11-01 13:10:00,
2013-11-01 08:11:00,39.1,37.2,29.63,West,275,7.0,9.0,93,0.00,,,0.00,30,Wunderground v.1.15,2013-11-01 13:11:00,
2013-11-01 08:12:00,39.1,37.2,29.62,West,271,8.0,10.0,93,0.00,,,0.00,32,Wunderground v.1.15,2013-11-01 13:12:00,
2013-11-01 08:14:00,39.3,37.4,29.63,West,273,6.0,10.0,93,0.00,,,0.00,32,Wunderground v.1.15,2013-11-01 13:14:00,
2013-11-01 08:15:00,39.5,37.6,29.63,West,277,6.0,10.0,93,0.00,,,0.00,28,Wunderground v.1.15,2013-11-01 13:15:00,
2013-11-01 08:17:00,39.7,38.1,29.62,West,271,6.0,10.0,94,0.00,,,0.00,23,Wunderground v.1.15,2013-11-01 13:17:00,
2013-11-01 08:18:00,39.7,37.8,29.62,West,269,7.0,10.0,93,0.00,,,0.00,21,Wunderground v.1.15,2013-11-01 13:18:00,
2013-11-01 08:19:00,39.8,37.9,29.62,West,273,6.0,10.0,93,0.00,,,0.00,21,Wunderground v.1.15,2013-11-01 13:19:00,
2013-11-01 08:20:00,40.0,38.1,29.62,West,281,5.0,8.0,93,0.00,,,0.00,26,Wunderground v.1.15,2013-11-01 13:20:00,
2013-11-01 08:23:00,40.2,38.3,29.63,West,273,4.0,10.0,93,0.00,,,0.00,39,Wunderground v.1.15,2013-11-01 13:23:00,
2013-11-01 08:24:00,40.4,38.5,29.63,West,278,6.0,10.0,93,0.00,,,0.00,30,Wunderground v.1.15,2013-11-01 13:24:00,
2013-11-01 08:26:00,40.6,38.7,29.63,WNW,292,6.0,10.0,93,0.00,,,0.00,35,Wunderground v.1.15,2013-11-01 13:26:00,
2013-11-01 08:28:00,40.7,38.8,29.63,West,278,8.0,10.0,93,0.00,,,0.00,44,Wunderground v.1.15,2013-11-01 13:28:00,
2013-11-01 08:29:00,40.7,38.6,29.63,West,270,3.0,10.0,92,0.00,,,0.00,47,Wunderground v.1.15,2013-11-01 13:29:00,
2013-11-01 08:30:00,40.7,38.6,29.63,West,277,7.0,7.0,92,0.00,,,0.00,49,Wunderground v.1.15,2013-11-01 13:30:00,
2013-11-01 08:31:00,40.8,38.7,29.63,West,269,6.0,8.0,92,0.00,,,0.00,49,Wunderground v.1.15,2013-11-01 13:31:00,
2013-11-01 08:33:00,40.9,38.8,29.63,West,275,6.0,9.0,92,0.00,,,0.00,46,Wunderground v.1.15,2013-11-01 13:33:00,
2013-11-01 08:35:00,41.0,38.9,29.63,West,273,7.0,9.0,92,0.00,,,0.00,44,Wunderground v.1.15,2013-11-01 13:35:00,
2013-11-01 08:37:00,41.1,39.0,29.63,West,275,6.0,9.0,92,0.00,,,0.00,46,Wunderground v.1.15,2013-11-01 13:37:00,
2013-11-01 08:38:00,41.1,39.0,29.64,WNW,286,8.0,9.0,92,0.00,,,0.00,46,Wunderground v.1.15,2013-11-01 13:38:00,
2013-11-01 08:40:00,41.2,39.1,29.64,West,275,7.0,9.0,92,0.00,,,0.00,46,Wunderground v.1.15,2013-11-01 13:40:00,
2013-11-01 08:44:00,41.3,39.2,29.64,WNW,286,6.0,10.0,92,0.00,,,0.00,40,Wunderground v.1.15,2013-11-01 13:44:00,
2013-11-01 08:45:00,41.4,39.3,29.64,West,281,4.0,10.0,92,0.00,,,0.00,40,Wunderground v.1.15,2013-11-01 13:45:00,
2013-11-01 08:46:00,41.4,39.0,29.64,West,281,7.0,10.0,91,0.00,,,0.00,39,Wunderground v.1.15,2013-11-01 13:46:00,
2013-11-01 08:49:00,41.5,39.1,29.64,WNW,286,7.0,12.0,91,0.00,,,0.00,33,Wunderground v.1.15,2013-11-01 13:49:00,
2013-11-01 08:50:00,41.4,39.0,29.64,WNW,286,7.0,12.0,91,0.00,,,0.00,33,Wunderground v.1.15,2013-11-01 13:50:00,
2013-11-01 08:51:00,41.4,39.0,29.65,WNW,292,8.0,10.0,91,0.00,,,0.00,33,Wunderground v.1.15,2013-11-01 13:51:00,
2013-11-01 08:54:00,41.5,39.1,29.65,WNW,285,7.0,11.0,91,0.00,,,0.00,40,Wunderground v.1.15,2013-11-01 13:54:00,
2013-11-01 08:55:00,41.5,39.1,29.65,West,264,8.0,11.0,91,0.00,,,0.00,49,Wunderground v.1.15,2013-11-01 13:55:00,
2013-11-01 08:56:00,41.5,38.8,29.65,West,281,6.0,11.0,90,0.00,,,0.00,54,Wunderground v.1.15,2013-11-01 13:56:00,
2013-11-01 08:57:00,41.5,38.8,29.65,WNW,282,6.0,11.0,90,0.00,,,0.00,58,Wunderground v.1.15,2013-11-01 13:57:00,
2013-11-01 08:59:00,41.6,38.9,29.65,West,281,6.0,11.0,90,0.00,,,0.00,63,Wunderground v.1.15,2013-11-01 13:59:00,
2013-11-01 09:00:00,41.6,38.9,29.65,West,275,12.0,12.0,90,0.00,,,0.00,70,Wunderground v.1.15,2013-11-01 14:00:00,
2013-11-01 09:01:00,41.6,38.9,29.65,WNW,291,10.0,12.0,90,0.00,,,0.00,97,Wunderground v.1.15,2013-11-01 14:01:00,
2013-11-01 09:02:00,41.6,38.9,29.65,WNW,297,10.0,12.0,90,0.00,,,0.00,139,Wunderground v.1.15,2013-11-01 14:02:00,
2013-11-01 09:04:00,41.9,39.2,29.65,WNW,284,7.0,12.0,90,0.00,,,0.00,179,Wunderground v.1.15,2013-11-01 14:04:00,
2013-11-01 09:06:00,42.1,39.4,29.65,WNW,293,6.0,12.0,90,0.00,,,0.00,202,Wunderground v.1.15,2013-11-01 14:06:00,
2013-11-01 09:07:00,42.3,39.6,29.65,WNW,284,6.0,12.0,90,0.00,,,0.00,207,Wunderground v.1.15,2013-11-01 14:07:00,
2013-11-01 09:10:00,42.7,40.0,29.65,West,281,6.0,12.0,90,0.00,,,0.00,221,Wunderground v.1.15,2013-11-01 14:10:00,
2013-11-01 09:11:00,42.9,40.2,29.65,WNW,291,10.0,11.0,90,0.00,,,0.00,230,Wunderground v.1.15,2013-11-01 14:11:00,
2013-11-01 09:12:00,43.1,40.1,29.65,WNW,288,9.0,12.0,89,0.00,,,0.00,209,Wunderground v.1.15,2013-11-01 14:12:00,
2013-11-01 09:13:00,43.1,40.1,29.65,WNW,301,8.0,12.0,89,0.00,,,0.00,127,Wunderground v.1.15,2013-11-01 14:13:00,
2013-11-01 09:15:00,43.2,39.9,29.65,West,277,10.0,13.0,88,0.00,,,0.00,111,Wunderground v.1.15,2013-11-01 14:15:00,
2013-11-01 09:16:00,43.2,39.9,29.65,West,279,9.0,13.0,88,0.00,,,0.00,114,Wunderground v.1.15,2013-11-01 14:16:00,
2013-11-01 09:18:00,43.2,39.9,29.65,West,279,7.0,13.0,88,0.00,,,0.00,111,Wunderground v.1.15,2013-11-01 14:18:00,
2013-11-01 09:19:00,43.2,39.9,29.65,WNW,287,10.0,13.0,88,0.00,,,0.00,107,Wunderground v.1.15,2013-11-01 14:19:00,
2013-11-01 09:20:00,43.2,39.6,29.66,WNW,292,8.0,13.0,87,0.00,,,0.00,104,Wunderground v.1.15,2013-11-01 14:20:00,
2013-11-01 09:21:00,43.1,39.5,29.66,WNW,292,5.0,9.0,87,0.00,,,0.00,104,Wunderground v.1.15,2013-11-01 14:21:00,
2013-11-01 09:22:00,43.1,39.5,29.66,WNW,300,8.0,9.0,87,0.00,,,0.00,104,Wunderground v.1.15,2013-11-01 14:22:00,
2013-11-01 09:23:00,43.1,39.5,29.66,West,277,6.0,11.0,87,0.00,,,0.00,137,Wunderground v.1.15,2013-11-01 14:23:00,
2013-11-01 09:24:00,43.1,39.5,29.66,West,274,5.0,11.0,87,0.00,,,0.00,109,Wunderground v.1.15,2013-11-01 14:24:00,
2013-11-01 09:25:00,43.1,39.5,29.66,WNW,292,11.0,11.0,87,0.00,,,0.00,105,Wunderground v.1.15,2013-11-01 14:25:00,
2013-11-01 09:27:00,43.0,39.4,29.66,WNW,288,7.0,11.0,87,0.00,,,0.00,95,Wunderground v.1.15,2013-11-01 14:27:00,
2013-11-01 09:29:00,42.9,39.3,29.66,WNW,295,8.0,11.0,87,0.00,,,0.00,98,Wunderground v.1.15,2013-11-01 14:29:00,
2013-11-01 09:30:00,42.9,39.3,29.66,WNW,283,9.0,9.0,87,0.00,,,0.00,104,Wunderground v.1.15,2013-11-01 14:30:00,
2013-11-01 09:32:00,42.9,39.3,29.66,WNW,284,6.0,10.0,87,0.00,,,0.00,91,Wunderground v.1.15,2013-11-01 14:32:00,
2013-11-01 09:33:00,42.9,39.3,29.66,WNW,283,4.0,10.0,87,0.00,,,0.00,83,Wunderground v.1.15,2013-11-01 14:33:00,
2013-11-01 09:34:00,42.8,39.2,29.66,West,280,9.0,10.0,87,0.00,,,0.00,77,Wunderground v.1.15,2013-11-01 14:34:00,
2013-11-01 09:35:00,42.8,39.2,29.66,WNW,289,6.0,10.0,87,0.00,,,0.00,77,Wunderground v.1.15,2013-11-01 14:35:00,
2013-11-01 09:37:00,42.8,39.2,29.66,West,271,6.0,10.0,87,0.00,,,0.00,95,Wunderground v.1.15,2013-11-01 14:37:00,
2013-11-01 09:38:00,42.7,39.1,29.66,WNW,288,9.0,10.0,87,0.00,,,0.00,86,Wunderground v.1.15,2013-11-01 14:38:00,
2013-11-01 09:39:00,42.7,39.1,29.66,West,271,6.0,10.0,87,0.00,,,0.00,86,Wunderground v.1.15,2013-11-01 14:39:00,
2013-11-01 09:40:00,42.7,39.1,29.66,West,278,7.0,7.0,87,0.00,,,0.00,167,Wunderground v.1.15,2013-11-01 14:40:00,
2013-11-01 09:41:00,42.7,39.4,29.66,West,275,5.0,7.0,88,0.00,,,0.00,167,Wunderground v.1.15,2013-11-01 14:41:00,
2013-11-01 09:42:00,42.8,39.5,29.66,West,278,5.0,11.0,88,0.00,,,0.00,135,Wunderground v.1.15,2013-11-01 14:42:00,
2013-11-01 09:43:00,42.9,39.6,29.66,West,269,8.0,11.0,88,0.00,,,0.00,264,Wunderground v.1.15,2013-11-01 14:43:00,
2013-11-01 09:45:00,43.2,39.9,29.66,West,281,4.0,11.0,88,0.00,,,0.00,272,Wunderground v.1.15,2013-11-01 14:45:00,
2013-11-01 09:46:00,43.3,40.0,29.66,WNW,286,7.0,11.0,88,0.00,,,0.00,272,Wunderground v.1.15,2013-11-01 14:46:00,
2013-11-01 09:47:00,43.5,40.2,29.66,West,281,8.0,11.0,88,0.00,,,0.00,278,Wunderground v.1.15,2013-11-01 14:47:00,
2013-11-01 09:50:00,44.0,40.4,29.66,WNW,285,8.0,11.0,87,0.00,,,0.00,292,Wunderground v.1.15,2013-11-01 14:50:00,
2013-11-01 09:51:00,44.1,40.2,29.66,WNW,286,8.0,10.0,86,0.00,,,0.00,297,Wunderground v.1.15,2013-11-01 14:51:00,
2013-11-01 09:52:00,44.3,40.7,29.66,WNW,287,9.0,10.0,87,0.00,,,0.00,299,Wunderground v.1.15,2013-11-01 14:52:00,
2013-11-01 09:53:00,44.4,40.8,29.66,WNW,288,4.0,10.0,87,0.00,,,0.00,308,Wunderground v.1.15,2013-11-01 14:53:00,
2013-11-01 09:55:00,44.9,41.0,29.66,West,275,9.0,12.0,86,0.00,,,0.00,338,Wunderground v.1.15,2013-11-01 14:55:00,
2013-11-01 09:56:00,45.0,40.8,29.66,WNW,292,9.0,13.0,85,0.00,,,0.00,338,Wunderground v.1.15,2013-11-01 14:56:00,
2013-11-01 09:57:00,45.0,40.8,29.66,West,281,7.0,13.0,85,0.00,,,0.00,371,Wunderground v.1.15,2013-11-01 14:57:00,
2013-11-01 09:58:00,45.0,40.5,29.66,West,281,9.0,13.0,84,0.00,,,0.00,371,Wunderground v.1.15,2013-11-01 14:58:00,
2013-11-01 10:01:00,45.6,41.0,29.66,WNW,282,7.0,10.0,84,0.00,,,0.00,369,Wunderground v.1.15,2013-11-01 15:01:00,
2013-11-01 10:02:00,45.8,41.2,29.66,WNW,300,7.0,10.0,84,0.00,,,0.00,424,Wunderground v.1.15,2013-11-01 15:02:00,
2013-11-01 10:03:00,45.8,41.2,29.66,WNW,292,7.0,10.0,84,0.00,,,0.00,424,Wunderground v.1.15,2013-11-01 15:03:00,
2013-11-01 10:07:00,46.1,40.9,29.66,West,271,8.0,14.0,82,0.00,,,0.00,120,Wunderground v.1.15,2013-11-01 15:07:00,
2013-11-01 10:08:00,46.0,40.5,29.66,WNW,286,8.0,14.0,81,0.00,,,0.00,105,Wunderground v.1.15,2013-11-01 15:08:00,
2013-11-01 10:12:00,45.5,40.3,29.66,West,277,11.0,12.0,82,0.00,,,0.00,88,Wunderground v.1.15,2013-11-01 15:12:00,
2013-11-01 10:13:00,45.5,40.3,29.66,WNW,294,11.0,12.0,82,0.00,,,0.00,88,Wunderground v.1.15,2013-11-01 15:13:00,
2013-11-01 10:14:00,45.3,40.1,29.67,WNW,289,7.0,12.0,82,0.00,,,0.00,104,Wunderground v.1.15,2013-11-01 15:14:00,
2013-11-01 10:18:00,45.2,40.3,29.67,WNW,294,9.0,12.0,83,0.00,,,0.00,283,Wunderground v.1.15,2013-11-01 15:18:00,
2013-11-01 10:19:00,45.4,40.5,29.67,WNW,284,9.0,12.0,83,0.00,,,0.00,216,Wunderground v.1.15,2013-11-01 15:19:00,
2013-11-01 10:23:00,45.8,40.6,29.67,WNW,291,8.0,12.0,82,0.00,,,0.00,134,Wunderground v.1.15,2013-11-01 15:23:00,
2013-11-01 10:24:00,45.9,40.7,29.66,WNW,294,10.0,12.0,82,0.00,,,0.00,134,Wunderground v.1.15,2013-11-01 15:24:00,
2013-11-01 10:25:00,46.1,40.9,29.66,West,281,10.0,13.0,82,0.00,,,0.00,399,Wunderground v.1.15,2013-11-01 15:25:00,
2013-11-01 10:29:00,46.9,41.4,29.66,WNW,288,10.0,14.0,81,0.00,,,0.00,355,Wunderground v.1.15,2013-11-01 15:29:00,
2013-11-01 10:30:00,47.1,41.2,29.67,WNW,301,8.0,10.0,80,0.00,,,0.00,399,Wunderground v.1.15,2013-11-01 15:30:00,
2013-11-01 10:34:00,47.8,41.9,29.67,West,274,12.0,14.0,80,0.00,,,0.00,181,Wunderground v.1.15,2013-11-01 15:34:00,
2013-11-01 10:36:00,47.7,41.2,29.67,WNW,301,10.0,14.0,78,0.00,,,0.00,274,Wunderground v.1.15,2013-11-01 15:36:00,
2013-11-01 10:39:00,47.9,42.0,29.67,West,279,12.0,15.0,80,0.00,,,0.00,462,Wunderground v.1.15,2013-11-01 15:39:00,
2013-11-01 10:40:00,47.9,42.0,29.67,WNW,284,10.0,15.0,80,0.00,,,0.00,471,Wunderground v.1.15,2013-11-01 15:40:00,
2013-11-01 10:42:00,48.3,42.1,29.67,West,276,13.0,15.0,79,0.00,,,0.00,492,Wunderground v.1.15,2013-11-01 15:42:00,
2013-11-01 10:44:00,48.7,42.5,29.67,WNW,294,11.0,16.0,79,0.00,,,0.00,431,Wunderground v.1.15,2013-11-01 15:44:00,
2013-11-01 10:45:00,48.7,42.5,29.67,WNW,286,12.0,16.0,79,0.00,,,0.00,431,Wunderground v.1.15,2013-11-01 15:45:00,
2013-11-01 10:46:00,48.8,42.2,29.67,WNW,296,15.0,16.0,78,0.00,,,0.00,466,Wunderground v.1.15,2013-11-01 15:46:00,
2013-11-01 10:47:00,48.8,41.9,29.67,WNW,294,13.0,16.0,77,0.00,,,0.00,211,Wunderground v.1.15,2013-11-01 15:47:00,
2013-11-01 10:49:00,48.9,42.3,29.67,WNW,296,11.0,16.0,78,0.00,,,0.00,244,Wunderground v.1.15,2013-11-01 15:49:00,
2013-11-01 10:50:00,48.9,42.7,29.67,NW,308,11.0,16.0,79,0.00,,,0.00,244,Wunderground v.1.15,2013-11-01 15:50:00,
2013-11-01 10:51:00,48.8,41.9,29.67,WNW,302,11.0,15.0,77,0.00,,,0.00,244,Wunderground v.1.15,2013-11-01 15:51:00,
2013-11-01 10:52:00,48.8,42.2,29.67,West,278,13.0,15.0,78,0.00,,,0.00,329,Wunderground v.1.15,2013-11-01 15:52:00,
2013-11-01 10:55:00,48.6,41.7,29.67,WNW,295,10.0,16.0,77,0.00,,,0.00,239,Wunderground v.1.15,2013-11-01 15:55:00,
2013-11-01 10:56:00,48.5,42.0,29.67,WNW,283,11.0,16.0,78,0.00,,,0.00,264,Wunderground v.1.15,2013-11-01 15:56:00,
2013-11-01 10:58:00,48.4,41.9,29.67,WNW,290,14.0,17.0,78,0.00,,,0.00,274,Wunderground v.1.15,2013-11-01 15:58:00,
2013-11-01 11:00:00,48.3,41.8,29.67,WNW,301,14.0,17.0,78,0.00,,,0.00,283,Wunderground v.1.15,2013-11-01 16:00:00,
2013-11-01 11:02:00,48.4,42.2,29.67,WNW,292,10.0,15.0,79,0.00,,,0.00,436,Wunderground v.1.15,2013-11-01 16:02:00,
2013-11-01 11:03:00,48.5,42.6,29.67,WNW,292,10.0,15.0,80,0.00,,,0.00,436,Wunderground v.1.15,2013-11-01 16:03:00,
2013-11-01 11:05:00,48.6,42.4,29.67,WNW,290,11.0,15.0,79,0.00,,,0.00,436,Wunderground v.1.15,2013-11-01 16:05:00,
2013-11-01 11:06:00,48.7,42.5,29.67,WNW,291,9.0,16.0,79,0.00,,,0.00,360,Wunderground v.1.15,2013-11-01 16:06:00,
2013-11-01 11:07:00,48.7,42.1,29.67,WNW,300,12.0,17.0,78,0.00,,,0.00,350,Wunderground v.1.15,2013-11-01 16:07:00,
2013-11-01 11:09:00,48.7,42.1,29.67,NW,316,14.0,17.0,78,0.00,,,0.00,413,Wunderground v.1.15,2013-11-01 16:09:00,
2013-11-01 11:10:00,48.7,42.1,29.67,NW,307,8.0,17.0,78,0.00,,,0.00,473,Wunderground v.1.15,2013-11-01 16:10:00,
2013-11-01 11:11:00,48.7,42.1,29.67,WNW,296,9.0,12.0,78,0.00,,,0.00,448,Wunderground v.1.15,2013-11-01 16:11:00,
2013-11-01 11:12:00,48.8,42.6,29.67,NW,304,15.0,16.0,79,0.00,,,0.00,411,Wunderground v.1.15,2013-11-01 16:12:00,
2013-11-01 11:15:00,49.0,42.4,29.67,WNW,284,10.0,16.0,78,0.00,,,0.00,346,Wunderground v.1.15,2013-11-01 16:15:00,
2013-11-01 11:16:00,49.0,42.1,29.67,NW,311,12.0,19.0,77,0.00,,,0.00,330,Wunderground v.1.15,2013-11-01 16:16:00,
2013-11-01 11:18:00,49.0,42.1,29.67,WNW,298,12.0,19.0,77,0.00,,,0.00,327,Wunderground v.1.15,2013-11-01 16:18:00,
2013-11-01 11:20:00,49.1,42.2,29.67,WNW,292,9.0,11.0,77,0.00,,,0.00,371,Wunderground v.1.15,2013-11-01 16:20:00,
2013-11-01 11:22:00,49.1,42.2,29.67,West,267,13.0,15.0,77,0.00,,,0.00,315,Wunderground v.1.15,2013-11-01 16:22:00,
2013-11-01 11:23:00,49.1,42.5,29.67,WNW,291,10.0,15.0,78,0.00,,,0.00,353,Wunderground v.1.15,2013-11-01 16:23:00,
2013-11-01 11:25:00,49.2,42.3,29.67,WNW,298,12.0,18.0,77,0.00,,,0.00,353,Wunderground v.1.15,2013-11-01 16:25:00,
2013-11-01 11:27:00,49.2,42.0,29.67,NW,308,15.0,18.0,76,0.00,,,0.00,346,Wunderground v.1.15,2013-11-01 16:27:00,
2013-11-01 11:28:00,49.2,42.3,29.67,WNW,293,12.0,18.0,77,0.00,,,0.00,346,Wunderground v.1.15,2013-11-01 16:28:00,
2013-11-01 11:31:00,49.5,42.6,29.67,WNW,297,10.0,15.0,77,0.00,,,0.00,359,Wunderground v.1.15,2013-11-01 16:31:00,
2013-11-01 11:32:00,49.6,42.7,29.67,NW,306,9.0,15.0,77,0.00,,,0.00,332,Wunderground v.1.15,2013-11-01 16:32:00,
2013-11-01 11:33:00,49.7,43.1,29.67,West,278,14.0,15.0,78,0.00,,,0.00,330,Wunderground v.1.15,2013-11-01 16:33:00,
2013-11-01 11:34:00,49.8,42.9,29.67,WNW,294,14.0,17.0,77,0.00,,,0.00,318,Wunderground v.1.15,2013-11-01 16:34:00,
2013-11-01 11:36:00,49.8,42.5,29.67,WNW,290,12.0,17.0,76,0.00,,,0.00,308,Wunderground v.1.15,2013-11-01 16:36:00,
2013-11-01 11:38:00,49.8,42.5,29.68,WNW,300,10.0,18.0,76,0.00,,,0.00,281,Wunderground v.1.15,2013-11-01 16:38:00,
2013-11-01 11:39:00,49.8,42.5,29.68,WNW,291,14.0,18.0,76,0.00,,,0.00,278,Wunderground v.1.15,2013-11-01 16:39:00,
2013-11-01 11:41:00,49.7,42.4,29.67,WNW,294,11.0,20.0,76,0.00,,,0.00,274,Wunderground v.1.15,2013-11-01 16:41:00,
2013-11-01 11:42:00,49.8,42.5,29.68,WNW,284,11.0,20.0,76,0.00,,,0.00,278,Wunderground v.1.15,2013-11-01 16:42:00,
2013-11-01 11:43:00,49.7,42.8,29.67,WNW,288,10.0,20.0,77,0.00,,,0.00,299,Wunderground v.1.15,2013-11-01 16:43:00,
2013-11-01 11:44:00,49.8,42.9,29.68,WNW,296,13.0,20.0,77,0.00,,,0.00,306,Wunderground v.1.15,2013-11-01 16:44:00,
2013-11-01 11:46:00,49.8,42.9,29.68,WNW,295,17.0,20.0,77,0.00,,,0.00,322,Wunderground v.1.15,2013-11-01 16:46:00,
2013-11-01 11:47:00,49.8,42.9,29.68,WNW,296,9.0,20.0,77,0.00,,,0.00,315,Wunderground v.1.15,2013-11-01 16:47:00,
2013-11-01 11:48:00,49.9,43.0,29.68,West,277,15.0,20.0,77,0.00,,,0.00,362,Wunderground v.1.15,2013-11-01 16:48:00,
2013-11-01 11:49:00,49.9,43.0,29.68,WNW,290,14.0,20.0,77,0.00,,,0.00,362,Wunderground v.1.15,2013-11-01 16:49:00,
2013-11-01 11:50:00,50.0,43.1,29.68,West,276,14.0,20.0,77,0.00,,,0.00,330,Wunderground v.1.15,2013-11-01 16:50:00,
2013-11-01 11:51:00,49.9,42.6,29.68,WNW,282,15.0,17.0,76,0.00,,,0.00,323,Wunderground v.1.15,2013-11-01 16:51:00,
2013-11-01 11:53:00,50.0,42.7,29.67,WNW,296,9.0,17.0,76,0.00,,,0.00,329,Wunderground v.1.15,2013-11-01 16:53:00,
2013-11-01 11:54:00,50.0,42.7,29.67,West,263,13.0,19.0,76,0.00,,,0.00,334,Wunderground v.1.15,2013-11-01 16:54:00,
2013-11-01 11:55:00,50.1,42.8,29.68,WNW,285,8.0,19.0,76,0.00,,,0.00,343,Wunderground v.1.15,2013-11-01 16:55:00,
2013-11-01 11:56:00,50.1,42.8,29.68,West,267,11.0,19.0,76,0.00,,,0.00,352,Wunderground v.1.15,2013-11-01 16:56:00,
2013-11-01 11:57:00,50.2,42.9,29.68,WNW,297,18.0,19.0,76,0.00,,,0.00,348,Wunderground v.1.15,2013-11-01 16:57:00,
2013-11-01 11:58:00,50.2,42.9,29.68,West,277,12.0,19.0,76,0.00,,,0.00,359,Wunderground v.1.15,2013-11-01 16:58:00,
2013-11-01 11:59:00,50.3,43.0,29.68,WNW,298,11.0,19.0,76,0.00,,,0.00,378,Wunderground v.1.15,2013-11-01 16:59:00,
2013-11-01 12:00:00,50.3,43.0,29.68,WNW,301,17.0,17.0,76,0.00,,,0.00,397,Wunderground v.1.15,2013-11-01 17:00:00,
2013-11-01 12:02:00,50.4,42.8,29.68,WSW,252,11.0,17.0,75,0.00,,,0.00,410,Wunderground v.1.15,2013-11-01 17:02:00,
2013-11-01 12:03:00,50.5,42.9,29.68,WNW,301,13.0,17.0,75,0.00,,,0.00,443,Wunderground v.1.15,2013-11-01 17:03:00,
2013-11-01 12:05:00,50.7,43.8,29.68,WNW,290,9.0,17.0,77,0.00,,,0.00,443,Wunderground v.1.15,2013-11-01 17:05:00,
2013-11-01 12:07:00,51.0,43.4,29.68,NW,308,10.0,17.0,75,0.00,,,0.00,415,Wunderground v.1.15,2013-11-01 17:07:00,
2013-11-01 12:08:00,51.1,43.4,29.68,West,279,13.0,17.0,75,0.00,,,0.00,397,Wunderground v.1.15,2013-11-01 17:08:00,
2013-11-01 12:09:00,51.1,43.4,29.68,WNW,285,9.0,17.0,75,0.00,,,0.00,366,Wunderground v.1.15,2013-11-01 17:09:00,
2013-11-01 12:10:00,51.2,43.5,29.68,WNW,302,12.0,12.0,75,0.00,,,0.00,362,Wunderground v.1.15,2013-11-01 17:10:00,
2013-11-01 12:11:00,51.2,43.5,29.68,WNW,291,14.0,15.0,75,0.00,,,0.00,362,Wunderground v.1.15,2013-11-01 17:11:00,
2013-11-01 12:12:00,51.2,43.2,29.68,WNW,284,11.0,16.0,74,0.00,,,0.00,355,Wunderground v.1.15,2013-11-01 17:12:00,
2013-11-01 12:13:00,51.2,43.5,29.68,WNW,293,11.0,16.0,75,0.00,,,0.00,320,Wunderground v.1.15,2013-11-01 17:13:00,
2013-11-01 12:14:00,51.2,43.5,29.68,West,278,11.0,16.0,75,0.00,,,0.00,320,Wunderground v.1.15,2013-11-01 17:14:00,
2013-11-01 12:16:00,51.1,43.1,29.68,WNW,296,9.0,16.0,74,0.00,,,0.00,318,Wunderground v.1.15,2013-11-01 17:16:00,
2013-11-01 12:17:00,51.1,43.4,29.68,WNW,292,9.0,16.0,75,0.00,,,0.00,332,Wunderground v.1.15,2013-11-01 17:17:00,
2013-11-01 12:19:00,51.2,43.2,29.68,West,269,9.0,16.0,74,0.00,,,0.00,348,Wunderground v.1.15,2013-11-01 17:19:00,
2013-11-01 12:20:00,51.3,43.6,29.68,West,277,6.0,16.0,75,0.00,,,0.00,350,Wunderground v.1.15,2013-11-01 17:20:00,
2013-11-01 12:21:00,51.4,44.1,29.68,WNW,284,7.0,12.0,76,0.00,,,0.00,348,Wunderground v.1.15,2013-11-01 17:21:00,
2013-11-01 12:23:00,51.6,43.6,29.68,West,280,12.0,12.0,74,0.00,,,0.00,315,Wunderground v.1.15,2013-11-01 17:23:00,
2013-11-01 12:24:00,51.7,43.3,29.68,West,281,10.0,13.0,73,0.00,,,0.00,311,Wunderground v.1.15,2013-11-01 17:24:00,
2013-11-01 12:25:00,51.8,43.4,29.68,WNW,296,6.0,13.0,73,0.00,,,0.00,320,Wunderground v.1.15,2013-11-01 17:25:00,
2013-11-01 12:26:00,51.9,43.9,29.68,NW,306,10.0,13.0,74,0.00,,,0.00,334,Wunderground v.1.15,2013-11-01 17:26:00,
2013-11-01 12:28:00,52.1,43.3,29.68,NNW,327,12.0,13.0,72,0.00,,,0.00,339,Wunderground v.1.15,2013-11-01 17:28:00,
2013-11-01 12:30:00,52.2,43.1,29.68,NW,304,13.0,13.0,71,0.00,,,0.00,343,Wunderground v.1.15,2013-11-01 17:30:00,
2013-11-01 12:31:00,52.3,42.0,29.68,WNW,298,10.0,18.0,68,0.00,,,0.00,411,Wunderground v.1.15,2013-11-01 17:31:00,
2013-11-01 12:33:00,52.6,42.3,29.68,WNW,297,12.0,18.0,68,0.00,,,0.00,320,Wunderground v.1.15,2013-11-01 17:33:00,
2013-11-01 12:34:00,52.5,42.2,29.68,WNW,303,11.0,18.0,68,0.00,,,0.00,320,Wunderground v.1.15,2013-11-01 17:34:00,
2013-11-01 12:35:00,52.6,42.3,29.68,WNW,284,12.0,18.0,68,0.00,,,0.00,366,Wunderground v.1.15,2013-11-01 17:35:00,
2013-11-01 12:36:00,52.7,42.4,29.68,West,279,14.0,18.0,68,0.00,,,0.00,415,Wunderground v.1.15,2013-11-01 17:36:00,
2013-11-01 12:37:00,52.8,42.5,29.68,WNW,302,13.0,18.0,68,0.00,,,0.00,325,Wunderground v.1.15,2013-11-01 17:37:00,
2013-11-01 12:39:00,52.8,42.1,29.68,WNW,290,13.0,19.0,67,0.00,,,0.00,278,Wunderground v.1.15,2013-11-01 17:39:00,
2013-11-01 12:40:00,52.8,42.1,29.68,WNW,284,16.0,16.0,67,0.00,,,0.00,265,Wunderground v.1.15,2013-11-01 17:40:00,
2013-11-01 12:41:00,52.8,42.1,29.67,NW,313,14.0,17.0,67,0.00,,,0.00,262,Wunderground v.1.15,2013-11-01 17:41:00,
2013-11-01 12:42:00,52.7,42.0,29.68,WNW,288,16.0,18.0,67,0.00,,,0.00,260,Wunderground v.1.15,2013-11-01 17:42:00,
2013-11-01 12:44:00,52.7,42.0,29.68,West,279,16.0,19.0,67,0.00,,,0.00,272,Wunderground v.1.15,2013-11-01 17:44:00,
2013-11-01 12:45:00,52.7,41.7,29.67,NW,307,10.0,19.0,66,0.00,,,0.00,341,Wunderground v.1.15,2013-11-01 17:45:00,
2013-11-01 12:46:00,52.7,42.0,29.68,NW,304,11.0,19.0,67,0.00,,,0.00,341,Wunderground v.1.15,2013-11-01 17:46:00,
2013-11-01 12:47:00,52.8,42.5,29.67,NW,304,9.0,19.0,68,0.00,,,0.00,445,Wunderground v.1.15,2013-11-01 17:47:00,
2013-11-01 12:50:00,53.3,43.8,29.67,West,278,10.0,19.0,70,0.00,,,0.00,369,Wunderground v.1.15,2013-11-01 17:50:00,
2013-11-01 12:51:00,53.7,43.4,29.67,WNW,285,13.0,15.0,68,0.00,,,0.00,536,Wunderground v.1.15,2013-11-01 17:51:00,
2013-11-01 12:52:00,53.7,43.0,29.67,NW,304,10.0,15.0,67,0.00,,,0.00,536,Wunderground v.1.15,2013-11-01 17:52:00,
2013-11-01 12:53:00,53.9,42.4,29.67,NW,317,12.0,15.0,65,0.00,,,0.00,612,Wunderground v.1.15,2013-11-01 17:53:00,
2013-11-01 12:55:00,54.4,43.7,29.67,WNW,300,12.0,15.0,67,0.00,,,0.00,700,Wunderground v.1.15,2013-11-01 17:55:00,
2013-11-01 12:56:00,54.6,42.7,29.67,WNW,292,9.0,18.0,64,0.00,,,0.00,700,Wunderground v.1.15,2013-11-01 17:56:00,
2013-11-01 12:57:00,54.8,43.3,29.67,West,278,13.0,18.0,65,0.00,,,0.00,691,Wunderground v.1.15,2013-11-01 17:57:00,
2013-11-01 12:58:00,55.0,43.0,29.67,West,267,11.0,18.0,64,0.00,,,0.00,701,Wunderground v.1.15,2013-11-01 17:58:00,
2013-11-01 13:00:00,55.2,42.8,29.67,NW,314,13.0,15.0,63,0.00,,,0.00,673,Wunderground v.1.15,2013-11-01 18:00:00,
2013-11-01 13:02:00,55.2,42.4,29.67,WNW,294,10.0,18.0,62,0.00,,,0.00,489,Wunderground v.1.15,2013-11-01 18:02:00,
2013-11-01 13:03:00,55.1,41.9,29.67,WNW,283,18.0,19.0,61,0.00,,,0.00,494,Wunderground v.1.15,2013-11-01 18:03:00,
2013-11-01 13:04:00,55.1,42.3,29.67,NW,305,14.0,19.0,62,0.00,,,0.00,457,Wunderground v.1.15,2013-11-01 18:04:00,
2013-11-01 13:05:00,55.0,42.2,29.67,WNW,302,13.0,20.0,62,0.00,,,0.00,524,Wunderground v.1.15,2013-11-01 18:05:00,
2013-11-01 13:07:00,54.9,42.5,29.67,WNW,299,15.0,20.0,63,0.00,,,0.00,461,Wunderground v.1.15,2013-11-01 18:07:00,
2013-11-01 13:08:00,54.8,42.4,29.67,WNW,286,13.0,20.0,63,0.00,,,0.00,290,Wunderground v.1.15,2013-11-01 18:08:00,
2013-11-01 13:09:00,54.7,42.3,29.67,WNW,292,11.0,20.0,63,0.00,,,0.00,290,Wunderground v.1.15,2013-11-01 18:09:00,
2013-11-01 13:11:00,54.5,42.2,29.67,WNW,290,19.0,19.0,63,0.00,,,0.00,482,Wunderground v.1.15,2013-11-01 18:11:00,
2013-11-01 13:12:00,54.4,42.1,29.68,WNW,285,13.0,22.0,63,0.00,,,0.00,550,Wunderground v.1.15,2013-11-01 18:12:00,
2013-11-01 13:13:00,54.5,42.6,29.68,WNW,294,14.0,22.0,64,0.00,,,0.00,499,Wunderground v.1.15,2013-11-01 18:13:00,
2013-11-01 13:14:00,54.5,42.2,29.68,NW,314,17.0,22.0,63,0.00,,,0.00,499,Wunderground v.1.15,2013-11-01 18:14:00,
2013-11-01 13:15:00,54.5,42.2,29.67,WNW,296,14.0,22.0,63,0.00,,,0.00,522,Wunderground v.1.15,2013-11-01 18:15:00,
2013-11-01 13:16:00,54.6,42.3,29.68,WNW,290,11.0,22.0,63,0.00,,,0.00,424,Wunderground v.1.15,2013-11-01 18:16:00,
2013-11-01 13:18:00,54.6,42.3,29.68,WNW,300,10.0,22.0,63,0.00,,,0.00,459,Wunderground v.1.15,2013-11-01 18:18:00,
2013-11-01 13:19:00,54.6,42.7,29.68,WNW,296,14.0,22.0,64,0.00,,,0.00,401,Wunderground v.1.15,2013-11-01 18:19:00,
2013-11-01 13:20:00,54.6,42.3,29.68,WNW,298,14.0,17.0,63,0.00,,,0.00,401,Wunderground v.1.15,2013-11-01 18:20:00,
2013-11-01 13:21:00,54.6,42.7,29.68,WNW,298,16.0,20.0,64,0.00,,,0.00,494,Wunderground v.1.15,2013-11-01 18:21:00,
2013-11-01 13:23:00,54.6,42.7,29.68,WNW,293,18.0,20.0,64,0.00,,,0.00,552,Wunderground v.1.15,2013-11-01 18:23:00,
2013-11-01 13:24:00,54.6,43.1,29.68,NW,304,14.0,20.0,65,0.00,,,0.00,513,Wunderground v.1.15,2013-11-01 18:24:00,
2013-11-01 13:25:00,54.7,43.2,29.68,WNW,292,12.0,20.0,65,0.00,,,0.00,483,Wunderground v.1.15,2013-11-01 18:25:00,
2013-11-01 13:27:00,54.8,43.3,29.68,WNW,292,10.0,20.0,65,0.00,,,0.00,448,Wunderground v.1.15,2013-11-01 18:27:00,
2013-11-01 13:28:00,54.9,42.9,29.68,WNW,298,15.0,20.0,64,0.00,,,0.00,439,Wunderground v.1.15,2013-11-01 18:28:00,
2013-11-01 13:29:00,54.9,42.9,29.68,West,268,12.0,20.0,64,0.00,,,0.00,499,Wunderground v.1.15,2013-11-01 18:29:00,
2013-11-01 13:30:00,54.9,42.9,29.68,West,275,18.0,20.0,64,0.00,,,0.00,547,Wunderground v.1.15,2013-11-01 18:30:00,
2013-11-01 13:31:00,54.9,42.5,29.68,WNW,302,13.0,21.0,63,0.00,,,0.00,510,Wunderground v.1.15,2013-11-01 18:31:00,
2013-11-01 13:32:00,54.9,42.9,29.68,WNW,302,14.0,21.0,64,0.00,,,0.00,543,Wunderground v.1.15,2013-11-01 18:32:00,
2013-11-01 13:34:00,54.9,41.7,29.68,NW,311,14.0,21.0,61,0.00,,,0.00,538,Wunderground v.1.15,2013-11-01 18:34:00,
2013-11-01 13:35:00,54.9,42.1,29.68,WNW,303,13.0,21.0,62,0.00,,,0.00,506,Wunderground v.1.15,2013-11-01 18:35:00,
2013-11-01 13:36:00,54.9,42.5,29.68,NW,307,13.0,21.0,63,0.00,,,0.00,515,Wunderground v.1.15,2013-11-01 18:36:00,
2013-11-01 13:38:00,54.9,42.1,29.68,NW,304,15.0,21.0,62,0.00,,,0.00,527,Wunderground v.1.15,2013-11-01 18:38:00,
2013-11-01 13:39:00,54.9,41.7,29.68,NW,312,13.0,21.0,61,0.00,,,0.00,626,Wunderground v.1.15,2013-11-01 18:39:00,
2013-11-01 13:40:00,55.0,42.6,29.68,WNW,301,13.0,15.0,63,0.00,,,0.00,592,Wunderground v.1.15,2013-11-01 18:40:00,
2013-11-01 13:41:00,54.9,41.7,29.68,NW,309,13.0,15.0,61,0.00,,,0.00,425,Wunderground v.1.15,2013-11-01 18:41:00,
2013-11-01 13:42:00,54.9,41.7,29.68,WNW,296,12.0,15.0,61,0.00,,,0.00,425,Wunderground v.1.15,2013-11-01 18:42:00,
2013-11-01 13:43:00,54.9,41.7,29.68,WNW,296,12.0,15.0,61,0.00,,,0.00,425,Wunderground v.1.15,2013-11-01 18:43:00,
2013-11-01 13:44:00,55.0,42.6,29.68,NW,314,10.0,15.0,63,0.00,,,0.00,545,Wunderground v.1.15,2013-11-01 18:44:00,
2013-11-01 13:45:00,55.2,43.6,29.68,WNW,293,11.0,15.0,65,0.00,,,0.00,545,Wunderground v.1.15,2013-11-01 18:45:00,
2013-11-01 13:46:00,55.2,43.6,29.68,NW,304,13.0,15.0,65,0.00,,,0.00,545,Wunderground v.1.15,2013-11-01 18:46:00,
2013-11-01 13:47:00,55.4,43.0,29.68,NW,308,15.0,19.0,63,0.00,,,0.00,545,Wunderground v.1.15,2013-11-01 18:47:00,
2013-11-01 13:48:00,55.5,43.1,29.68,WNW,288,13.0,19.0,63,0.00,,,0.00,545,Wunderground v.1.15,2013-11-01 18:48:00,
2013-11-01 13:49:00,55.5,43.1,29.68,WNW,292,12.0,19.0,63,0.00,,,0.00,573,Wunderground v.1.15,2013-11-01 18:49:00,
2013-11-01 13:51:00,55.5,43.5,29.68,WNW,292,17.0,20.0,64,0.00,,,0.00,596,Wunderground v.1.15,2013-11-01 18:51:00,
2013-11-01 13:52:00,55.6,43.2,29.67,WNW,302,22.0,22.0,63,0.00,,,0.00,563,Wunderground v.1.15,2013-11-01 18:52:00,
2013-11-01 13:53:00,55.7,43.3,29.67,West,276,14.0,22.0,63,0.00,,,0.00,670,Wunderground v.1.15,2013-11-01 18:53:00,
2013-11-01 13:54:00,55.7,43.3,29.68,WNW,289,12.0,22.0,63,0.00,,,0.00,599,Wunderground v.1.15,2013-11-01 18:54:00,
2013-11-01 13:57:00,55.8,43.8,29.67,WNW,293,17.0,22.0,64,0.00,,,0.00,599,Wunderground v.1.15,2013-11-01 18:57:00,
2013-11-01 13:58:00,55.9,43.5,29.67,West,281,9.0,22.0,63,0.00,,,0.00,664,Wunderground v.1.15,2013-11-01 18:58:00,
2013-11-01 13:59:00,56.0,44.0,29.67,WNW,296,9.0,22.0,64,0.00,,,0.00,664,Wunderground v.1.15,2013-11-01 18:59:00,
2013-11-01 14:00:00,56.2,43.3,29.67,West,281,12.0,13.0,62,0.00,,,0.00,694,Wunderground v.1.15,2013-11-01 19:00:00,
2013-11-01 14:02:00,56.2,42.9,29.67,WNW,293,8.0,19.0,61,0.00,,,0.00,689,Wunderground v.1.15,2013-11-01 19:02:00,
2013-11-01 14:04:00,56.4,43.1,29.67,WNW,298,11.0,19.0,61,0.00,,,0.00,686,Wunderground v.1.15,2013-11-01 19:04:00,
2013-11-01 14:05:00,56.4,43.1,29.67,WNW,302,16.0,19.0,61,0.00,,,0.00,420,Wunderground v.1.15,2013-11-01 19:05:00,
2013-11-01 14:08:00,56.1,42.8,29.67,WNW,300,11.0,19.0,61,0.00,,,0.00,355,Wunderground v.1.15,2013-11-01 19:08:00,
2013-11-01 14:09:00,56.0,43.2,29.67,WNW,295,12.0,19.0,62,0.00,,,0.00,341,Wunderground v.1.15,2013-11-01 19:09:00,
2013-11-01 14:10:00,55.9,42.6,29.67,NW,306,11.0,13.0,61,0.00,,,0.00,323,Wunderground v.1.15,2013-11-01 19:10:00,
2013-11-01 14:13:00,55.9,42.6,29.67,WNW,289,10.0,22.0,61,0.00,,,0.00,271,Wunderground v.1.15,2013-11-01 19:13:00,
2013-11-01 14:14:00,55.8,42.5,29.67,NW,319,13.0,22.0,61,0.00,,,0.00,276,Wunderground v.1.15,2013-11-01 19:14:00,
2013-11-01 14:16:00,55.7,42.0,29.67,WNW,293,13.0,22.0,60,0.00,,,0.00,292,Wunderground v.1.15,2013-11-01 19:16:00,
2013-11-01 14:18:00,55.5,41.8,29.67,WNW,296,13.0,22.0,60,0.00,,,0.00,364,Wunderground v.1.15,2013-11-01 19:18:00,
2013-11-01 14:19:00,55.5,42.7,29.67,WNW,302,13.0,22.0,62,0.00,,,0.00,438,Wunderground v.1.15,2013-11-01 19:19:00,
2013-11-01 14:20:00,55.5,42.3,29.67,WNW,290,15.0,22.0,61,0.00,,,0.00,438,Wunderground v.1.15,2013-11-01 19:20:00,
2013-11-01 14:22:00,55.5,42.7,29.67,WNW,283,20.0,20.0,62,0.00,,,0.00,550,Wunderground v.1.15,2013-11-01 19:22:00,
2013-11-01 14:24:00,55.6,42.4,29.68,West,280,15.0,20.0,61,0.00,,,0.00,464,Wunderground v.1.15,2013-11-01 19:24:00,
2013-11-01 14:25:00,55.6,42.4,29.68,WNW,286,15.0,20.0,61,0.00,,,0.00,459,Wunderground v.1.15,2013-11-01 19:25:00,
2013-11-01 14:26:00,55.7,42.5,29.68,WNW,301,18.0,20.0,61,0.00,,,0.00,517,Wunderground v.1.15,2013-11-01 19:26:00,
2013-11-01 14:27:00,55.8,42.5,29.68,West,279,12.0,20.0,61,0.00,,,0.00,550,Wunderground v.1.15,2013-11-01 19:27:00,
2013-11-01 14:29:00,56.0,42.7,29.68,WNW,299,13.0,20.0,61,0.00,,,0.00,589,Wunderground v.1.15,2013-11-01 19:29:00,
2013-11-01 14:30:00,56.2,43.3,29.68,WNW,285,18.0,20.0,62,0.00,,,0.00,582,Wunderground v.1.15,2013-11-01 19:30:00,
2013-11-01 14:31:00,56.5,43.6,29.68,West,281,14.0,16.0,62,0.00,,,0.00,577,Wunderground v.1.15,2013-11-01 19:31:00,
2013-11-01 14:32:00,56.6,42.9,29.68,West,281,21.0,21.0,60,0.00,,,0.00,571,Wunderground v.1.15,2013-11-01 19:32:00,
2013-11-01 14:34:00,56.7,43.0,29.68,WNW,295,11.0,21.0,60,0.00,,,0.00,571,Wunderground v.1.15,2013-11-01 19:34:00,
2013-11-01 14:35:00,56.7,43.0,29.68,NW,312,10.0,21.0,60,0.00,,,0.00,555,Wunderground v.1.15,2013-11-01 19:35:00,
2013-11-01 14:37:00,56.8,43.5,29.68,NW,313,16.0,21.0,61,0.00,,,0.00,550,Wunderground v.1.15,2013-11-01 19:37:00,
2013-11-01 14:38:00,56.9,42.7,29.68,WNW,290,13.0,21.0,59,0.00,,,0.00,487,Wunderground v.1.15,2013-11-01 19:38:00,
2013-11-01 14:40:00,56.9,42.3,29.68,WNW,300,13.0,21.0,58,0.00,,,0.00,376,Wunderground v.1.15,2013-11-01 19:40:00,
2013-11-01 14:41:00,56.8,42.2,29.68,WNW,288,12.0,14.0,58,0.00,,,0.00,459,Wunderground v.1.15,2013-11-01 19:41:00,
2013-11-01 14:42:00,56.7,42.5,29.68,WNW,294,15.0,19.0,59,0.00,,,0.00,459,Wunderground v.1.15,2013-11-01 19:42:00,
2013-11-01 14:43:00,56.7,42.5,29.68,WNW,298,16.0,19.0,59,0.00,,,0.00,320,Wunderground v.1.15,2013-11-01 19:43:00,
2013-11-01 14:45:00,56.7,42.1,29.67,NW,306,17.0,19.0,58,0.00,,,0.00,320,Wunderground v.1.15,2013-11-01 19:45:00,
2013-11-01 14:46:00,56.7,43.0,29.68,WNW,300,15.0,19.0,60,0.00,,,0.00,547,Wunderground v.1.15,2013-11-01 19:46:00,
2013-11-01 14:47:00,56.8,42.2,29.68,West,279,21.0,22.0,58,0.00,,,0.00,454,Wunderground v.1.15,2013-11-01 19:47:00,
2013-11-01 14:49:00,56.8,41.7,29.68,WNW,303,19.0,23.0,57,0.00,,,0.00,424,Wunderground v.1.15,2013-11-01 19:49:00,
2013-11-01 14:50:00,56.7,42.1,29.68,WNW,290,16.0,19.0,58,0.00,,,0.00,404,Wunderground v.1.15,2013-11-01 19:50:00,
2013-11-01 14:51:00,56.6,42.0,29.68,WNW,285,17.0,21.0,58,0.00,,,0.00,385,Wunderground v.1.15,2013-11-01 19:51:00,
2013-11-01 14:52:00,56.6,42.0,29.68,WNW,288,12.0,21.0,58,0.00,,,0.00,399,Wunderground v.1.15,2013-11-01 19:52:00,
2013-11-01 14:53:00,56.5,42.3,29.68,WNW,290,8.0,21.0,59,0.00,,,0.00,417,Wunderground v.1.15,2013-11-01 19:53:00,
2013-11-01 14:54:00,56.5,42.8,29.68,NW,306,10.0,21.0,60,0.00,,,0.00,392,Wunderground v.1.15,2013-11-01 19:54:00,
2013-11-01 14:56:00,56.4,42.7,29.68,WNW,295,13.0,21.0,60,0.00,,,0.00,204,Wunderground v.1.15,2013-11-01 19:56:00,
2013-11-01 14:58:00,56.3,43.0,29.68,WNW,300,12.0,21.0,61,0.00,,,0.00,364,Wunderground v.1.15,2013-11-01 19:58:00,
2013-11-01 14:59:00,56.2,42.9,29.68,WNW,300,11.0,21.0,61,0.00,,,0.00,369,Wunderground v.1.15,2013-11-01 19:59:00,
2013-11-01 15:02:00,56.3,43.4,29.68,West,271,17.0,19.0,62,0.00,,,0.00,360,Wunderground v.1.15,2013-11-01 20:02:00,
2013-11-01 15:03:00,56.4,43.5,29.68,West,274,14.0,19.0,62,0.00,,,0.00,322,Wunderground v.1.15,2013-11-01 20:03:00,
2013-11-01 15:04:00,56.4,43.5,29.68,WNW,294,14.0,19.0,62,0.00,,,0.00,309,Wunderground v.1.15,2013-11-01 20:04:00,
2013-11-01 15:07:00,56.3,43.0,29.68,WNW,296,14.0,19.0,61,0.00,,,0.00,313,Wunderground v.1.15,2013-11-01 20:07:00,
2013-11-01 15:08:00,56.2,42.9,29.68,WNW,286,10.0,19.0,61,0.00,,,0.00,431,Wunderground v.1.15,2013-11-01 20:08:00,
2013-11-01 15:09:00,56.2,42.9,29.68,NW,313,15.0,21.0,61,0.00,,,0.00,476,Wunderground v.1.15,2013-11-01 20:09:00,
2013-11-01 15:10:00,56.2,42.9,29.68,WNW,296,15.0,15.0,61,0.00,,,0.00,499,Wunderground v.1.15,2013-11-01 20:10:00,
2013-11-01 15:13:00,56.2,43.3,29.68,WNW,302,8.0,20.0,62,0.00,,,0.00,288,Wunderground v.1.15,2013-11-01 20:13:00,
2013-11-01 15:14:00,56.1,42.8,29.69,WNW,298,14.0,20.0,61,0.00,,,0.00,292,Wunderground v.1.15,2013-11-01 20:14:00,
2013-11-01 15:15:00,56.0,43.2,29.69,WNW,298,9.0,20.0,62,0.00,,,0.00,236,Wunderground v.1.15,2013-11-01 20:15:00,
2013-11-01 15:18:00,56.1,43.7,29.69,West,275,13.0,20.0,63,0.00,,,0.00,476,Wunderground v.1.15,2013-11-01 20:18:00,
2013-11-01 15:19:00,56.3,43.9,29.69,WNW,299,12.0,20.0,63,0.00,,,0.00,526,Wunderground v.1.15,2013-11-01 20:19:00,
2013-11-01 15:21:00,56.6,44.6,29.69,West,275,11.0,16.0,64,0.00,,,0.00,482,Wunderground v.1.15,2013-11-01 20:21:00,
2013-11-01 15:23:00,56.9,43.2,29.69,WNW,289,16.0,22.0,60,0.00,,,0.00,443,Wunderground v.1.15,2013-11-01 20:23:00,
2013-11-01 15:24:00,56.9,43.2,29.69,WNW,290,12.0,22.0,60,0.00,,,0.00,431,Wunderground v.1.15,2013-11-01 20:24:00,
2013-11-01 15:26:00,56.8,42.6,29.69,WNW,300,11.0,22.0,59,0.00,,,0.00,401,Wunderground v.1.15,2013-11-01 20:26:00,
2013-11-01 15:29:00,56.8,43.5,29.69,NW,319,17.0,22.0,61,0.00,,,0.00,410,Wunderground v.1.15,2013-11-01 20:29:00,
2013-11-01 15:30:00,56.8,43.5,29.69,West,274,17.0,22.0,61,0.00,,,0.00,473,Wunderground v.1.15,2013-11-01 20:30:00,
2013-11-01 15:32:00,56.7,42.5,29.69,WNW,295,14.0,18.0,59,0.00,,,0.00,383,Wunderground v.1.15,2013-11-01 20:32:00,
2013-11-01 15:34:00,56.4,43.1,29.69,WNW,303,13.0,19.0,61,0.00,,,0.00,155,Wunderground v.1.15,2013-11-01 20:34:00,
2013-11-01 15:35:00,56.3,42.6,29.69,WNW,298,11.0,19.0,60,0.00,,,0.00,192,Wunderground v.1.15,2013-11-01 20:35:00,
2013-11-01 15:36:00,56.1,42.8,29.69,NW,325,11.0,19.0,61,0.00,,,0.00,165,Wunderground v.1.15,2013-11-01 20:36:00,
2013-11-01 15:37:00,56.0,42.7,29.69,WNW,302,8.0,19.0,61,0.00,,,0.00,211,Wunderground v.1.15,2013-11-01 20:37:00,
2013-11-01 15:40:00,55.7,42.9,29.69,WNW,284,11.0,19.0,62,0.00,,,0.00,221,Wunderground v.1.15,2013-11-01 20:40:00,
2013-11-01 15:41:00,55.7,43.3,29.69,WNW,293,8.0,12.0,63,0.00,,,0.00,241,Wunderground v.1.15,2013-11-01 20:41:00,
2013-11-01 15:44:00,55.6,43.2,29.69,WNW,289,13.0,14.0,63,0.00,,,0.00,200,Wunderground v.1.15,2013-11-01 20:44:00,
2013-11-01 15:45:00,55.5,43.1,29.69,WNW,284,11.0,14.0,63,0.00,,,0.00,197,Wunderground v.1.15,2013-11-01 20:45:00,
2013-11-01 15:46:00,55.6,43.6,29.69,WNW,284,11.0,14.0,64,0.00,,,0.00,276,Wunderground v.1.15,2013-11-01 20:46:00,
2013-11-01 15:49:00,56.0,43.2,29.69,WNW,302,7.0,15.0,62,0.00,,,0.00,436,Wunderground v.1.15,2013-11-01 20:49:00,
2013-11-01 15:50:00,56.2,43.8,29.69,NW,313,20.0,20.0,63,0.00,,,0.00,434,Wunderground v.1.15,2013-11-01 20:50:00,
2013-11-01 15:52:00,56.4,43.1,29.69,NW,314,10.0,20.0,61,0.00,,,0.00,401,Wunderground v.1.15,2013-11-01 20:52:00,
2013-11-01 15:55:00,56.8,43.5,29.69,NW,315,11.0,20.0,61,0.00,,,0.00,376,Wunderground v.1.15,2013-11-01 20:55:00,
2013-11-01 15:56:00,56.9,42.7,29.69,WNW,289,12.0,20.0,59,0.00,,,0.00,390,Wunderground v.1.15,2013-11-01 20:56:00,
2013-11-01 15:57:00,56.9,42.7,29.69,WNW,298,12.0,20.0,59,0.00,,,0.00,392,Wunderground v.1.15,2013-11-01 20:57:00,
2013-11-01 15:58:00,56.9,42.7,29.69,WNW,296,9.0,20.0,59,0.00,,,0.00,392,Wunderground v.1.15,2013-11-01 20:58:00,
2013-11-01 16:00:00,56.8,42.6,29.69,NW,317,10.0,12.0,59,0.00,,,0.00,128,Wunderground v.1.15,2013-11-01 21:00:00,
2013-11-01 16:02:00,56.5,42.8,29.69,NW,305,10.0,15.0,60,0.00,,,0.00,308,Wunderground v.1.15,2013-11-01 21:02:00,
2013-11-01 16:03:00,56.5,42.8,29.69,NW,315,13.0,15.0,60,0.00,,,0.00,309,Wunderground v.1.15,2013-11-01 21:03:00,
2013-11-01 16:06:00,56.7,42.5,29.69,NNW,340,16.0,17.0,59,0.00,,,0.00,380,Wunderground v.1.15,2013-11-01 21:06:00,
2013-11-01 16:08:00,56.8,42.2,29.69,NW,321,9.0,19.0,58,0.00,,,0.00,373,Wunderground v.1.15,2013-11-01 21:08:00,
2013-11-01 16:10:00,57.0,42.8,29.69,WNW,292,13.0,13.0,59,0.00,,,0.00,373,Wunderground v.1.15,2013-11-01 21:10:00,
2013-11-01 16:11:00,56.9,42.3,29.70,NW,307,13.0,19.0,58,0.00,,,0.00,373,Wunderground v.1.15,2013-11-01 21:11:00,
2013-11-01 16:12:00,56.9,42.3,29.70,NW,325,13.0,19.0,58,0.00,,,0.00,373,Wunderground v.1.15,2013-11-01 21:12:00,
2013-11-01 16:13:00,56.9,42.3,29.69,WNW,295,14.0,19.0,58,0.00,,,0.00,294,Wunderground v.1.15,2013-11-01 21:13:00,
2013-11-01 16:14:00,56.9,42.3,29.70,WNW,296,10.0,19.0,58,0.00,,,0.00,294,Wunderground v.1.15,2013-11-01 21:14:00,
2013-11-01 16:15:00,56.9,42.3,29.69,WNW,290,10.0,19.0,58,0.00,,,0.00,144,Wunderground v.1.15,2013-11-01 21:15:00,
2013-11-01 16:16:00,56.9,42.7,29.70,NW,307,10.0,19.0,59,0.00,,,0.00,142,Wunderground v.1.15,2013-11-01 21:16:00,
2013-11-01 16:17:00,56.8,42.2,29.70,WNW,297,8.0,19.0,58,0.00,,,0.00,142,Wunderground v.1.15,2013-11-01 21:17:00,
2013-11-01 16:18:00,56.8,43.1,29.69,NW,313,12.0,19.0,60,0.00,,,0.00,142,Wunderground v.1.15,2013-11-01 21:18:00,
2013-11-01 16:20:00,56.9,42.3,29.69,NW,306,12.0,12.0,58,0.00,,,0.00,380,Wunderground v.1.15,2013-11-01 21:20:00,
2013-11-01 16:21:00,56.9,42.3,29.69,WNW,299,18.0,18.0,58,0.00,,,0.00,380,Wunderground v.1.15,2013-11-01 21:21:00,
2013-11-01 16:22:00,56.9,41.8,29.69,WNW,292,16.0,18.0,57,0.00,,,0.00,348,Wunderground v.1.15,2013-11-01 21:22:00,
2013-11-01 16:23:00,57.0,42.4,29.69,West,281,19.0,20.0,58,0.00,,,0.00,320,Wunderground v.1.15,2013-11-01 21:23:00,
2013-11-01 16:26:00,57.1,42.5,29.69,WNW,290,15.0,20.0,58,0.00,,,0.00,299,Wunderground v.1.15,2013-11-01 21:26:00,
2013-11-01 16:27:00,57.1,41.5,29.69,WNW,287,12.0,20.0,56,0.00,,,0.00,299,Wunderground v.1.15,2013-11-01 21:27:00,
2013-11-01 16:28:00,57.0,41.0,29.70,WNW,291,13.0,20.0,55,0.00,,,0.00,81,Wunderground v.1.15,2013-11-01 21:28:00,
2013-11-01 16:31:00,56.8,42.2,29.70,NW,313,12.0,16.0,58,0.00,,,0.00,301,Wunderground v.1.15,2013-11-01 21:31:00,
2013-11-01 16:32:00,56.7,41.6,29.70,WNW,296,9.0,16.0,57,0.00,,,0.00,127,Wunderground v.1.15,2013-11-01 21:32:00,
2013-11-01 16:33:00,56.6,41.5,29.70,WNW,300,11.0,16.0,57,0.00,,,0.00,279,Wunderground v.1.15,2013-11-01 21:33:00,
2013-11-01 16:34:00,56.6,41.5,29.70,WNW,301,9.0,16.0,57,0.00,,,0.00,279,Wunderground v.1.15,2013-11-01 21:34:00,
2013-11-01 16:36:00,56.7,41.6,29.70,NW,309,8.0,17.0,57,0.00,,,0.00,239,Wunderground v.1.15,2013-11-01 21:36:00,
2013-11-01 16:38:00,56.6,41.5,29.70,NW,308,11.0,17.0,57,0.00,,,0.00,93,Wunderground v.1.15,2013-11-01 21:38:00,
2013-11-01 16:39:00,56.5,42.3,29.70,WNW,297,7.0,17.0,59,0.00,,,0.00,179,Wunderground v.1.15,2013-11-01 21:39:00,
2013-11-01 16:41:00,56.3,42.6,29.70,WNW,290,8.0,11.0,60,0.00,,,0.00,144,Wunderground v.1.15,2013-11-01 21:41:00,
2013-11-01 16:42:00,56.3,42.6,29.70,NW,312,9.0,11.0,60,0.00,,,0.00,60,Wunderground v.1.15,2013-11-01 21:42:00,
2013-11-01 16:43:00,56.2,42.5,29.70,NW,313,9.0,11.0,60,0.00,,,0.00,65,Wunderground v.1.15,2013-11-01 21:43:00,
2013-11-01 16:44:00,56.0,42.3,29.70,WNW,295,9.0,11.0,60,0.00,,,0.00,76,Wunderground v.1.15,2013-11-01 21:44:00,
2013-11-01 16:47:00,55.9,42.2,29.70,WNW,297,13.0,14.0,60,0.00,,,0.00,98,Wunderground v.1.15,2013-11-01 21:47:00,
2013-11-01 16:48:00,55.8,42.1,29.70,WNW,294,6.0,14.0,60,0.00,,,0.00,97,Wunderground v.1.15,2013-11-01 21:48:00,
2013-11-01 16:50:00,55.7,42.5,29.70,WNW,296,6.0,14.0,61,0.00,,,0.00,104,Wunderground v.1.15,2013-11-01 21:50:00,
2013-11-01 16:52:00,55.7,42.9,29.70,WNW,298,8.0,9.0,62,0.00,,,0.00,274,Wunderground v.1.15,2013-11-01 21:52:00,
2013-11-01 16:53:00,55.8,43.0,29.70,WNW,292,7.0,9.0,62,0.00,,,0.00,274,Wunderground v.1.15,2013-11-01 21:53:00,
2013-11-01 16:54:00,56.0,42.7,29.70,WNW,292,8.0,9.0,61,0.00,,,0.00,251,Wunderground v.1.15,2013-11-01 21:54:00,
2013-11-01 16:55:00,56.1,42.8,29.70,NW,312,11.0,11.0,61,0.00,,,0.00,229,Wunderground v.1.15,2013-11-01 21:55:00,
2013-11-01 16:57:00,56.4,42.7,29.70,WNW,302,9.0,11.0,60,0.00,,,0.00,183,Wunderground v.1.15,2013-11-01 21:57:00,
2013-11-01 16:58:00,56.4,43.1,29.70,NW,313,13.0,13.0,61,0.00,,,0.00,183,Wunderground v.1.15,2013-11-01 21:58:00,
2013-11-01 16:59:00,56.4,42.2,29.70,WNW,296,13.0,16.0,59,0.00,,,0.00,171,Wunderground v.1.15,2013-11-01 21:59:00,
2013-11-01 17:00:00,56.4,42.2,29.70,NW,308,13.0,16.0,59,0.00,,,0.00,171,Wunderground v.1.15,2013-11-01 22:00:00,
2013-11-01 17:03:00,56.3,41.7,29.70,WNW,293,11.0,18.0,58,0.00,,,0.00,62,Wunderground v.1.15,2013-11-01 22:03:00,
2013-11-01 17:05:00,56.2,42.1,29.70,WNW,289,7.0,18.0,59,0.00,,,0.00,56,Wunderground v.1.15,2013-11-01 22:05:00,
2013-11-01 17:08:00,55.8,41.2,29.70,WNW,293,9.0,18.0,58,0.00,,,0.00,53,Wunderground v.1.15,2013-11-01 22:08:00,
2013-11-01 17:09:00,55.6,41.0,29.70,WNW,296,12.0,18.0,58,0.00,,,0.00,54,Wunderground v.1.15,2013-11-01 22:09:00,
2013-11-01 17:10:00,55.5,41.4,29.70,WNW,288,12.0,18.0,59,0.00,,,0.00,54,Wunderground v.1.15,2013-11-01 22:10:00,
2013-11-01 17:13:00,55.1,41.5,29.70,WNW,302,9.0,12.0,60,0.00,,,0.00,49,Wunderground v.1.15,2013-11-01 22:13:00,
2013-11-01 17:14:00,55.0,41.4,29.71,WNW,288,9.0,12.0,60,0.00,,,0.00,47,Wunderground v.1.15,2013-11-01 22:14:00,
2013-11-01 17:15:00,54.8,41.6,29.71,WNW,291,6.0,12.0,61,0.00,,,0.00,67,Wunderground v.1.15,2013-11-01 22:15:00,
2013-11-01 17:16:00,54.6,41.4,29.71,WNW,297,7.0,12.0,61,0.00,,,0.00,76,Wunderground v.1.15,2013-11-01 22:16:00,
2013-11-01 17:18:00,54.5,41.7,29.71,WNW,293,7.0,12.0,62,0.00,,,0.00,84,Wunderground v.1.15,2013-11-01 22:18:00,
2013-11-01 17:19:00,54.5,41.7,29.71,WNW,296,8.0,12.0,62,0.00,,,0.00,95,Wunderground v.1.15,2013-11-01 22:19:00,
2013-11-01 17:20:00,54.5,41.7,29.71,WNW,294,10.0,12.0,62,0.00,,,0.00,91,Wunderground v.1.15,2013-11-01 22:20:00,
2013-11-01 17:21:00,54.5,41.7,29.71,WNW,299,6.0,12.0,62,0.00,,,0.00,91,Wunderground v.1.15,2013-11-01 22:21:00,
2013-11-01 17:23:00,54.6,42.3,29.71,NW,306,7.0,12.0,63,0.00,,,0.00,62,Wunderground v.1.15,2013-11-01 22:23:00,
2013-11-01 17:25:00,54.6,42.3,29.71,NW,309,6.0,12.0,63,0.00,,,0.00,60,Wunderground v.1.15,2013-11-01 22:25:00,
2013-11-01 17:26:00,54.6,42.3,29.71,WNW,290,9.0,12.0,63,0.00,,,0.00,60,Wunderground v.1.15,2013-11-01 22:26:00,
2013-11-01 17:27:00,54.5,41.7,29.70,WNW,302,7.0,12.0,62,0.00,,,0.00,60,Wunderground v.1.15,2013-11-01 22:27:00,
2013-11-01 17:29:00,54.4,42.1,29.70,WNW,298,8.0,12.0,63,0.00,,,0.00,54,Wunderground v.1.15,2013-11-01 22:29:00,
2013-11-01 17:30:00,54.4,41.6,29.71,WNW,298,6.0,8.0,62,0.00,,,0.00,51,Wunderground v.1.15,2013-11-01 22:30:00,
2013-11-01 17:31:00,54.4,41.6,29.71,WNW,294,6.0,8.0,62,0.00,,,0.00,47,Wunderground v.1.15,2013-11-01 22:31:00,
2013-11-01 17:32:00,54.4,42.1,29.71,WNW,297,7.0,8.0,63,0.00,,,0.00,44,Wunderground v.1.15,2013-11-01 22:32:00,
2013-11-01 17:34:00,54.2,42.3,29.71,WNW,289,8.0,8.0,64,0.00,,,0.00,32,Wunderground v.1.15,2013-11-01 22:34:00,
2013-11-01 17:36:00,54.1,42.2,29.71,WNW,285,11.0,11.0,64,0.00,,,0.00,25,Wunderground v.1.15,2013-11-01 22:36:00,
2013-11-01 17:37:00,54.0,41.7,29.71,NW,306,8.0,11.0,63,0.00,,,0.00,21,Wunderground v.1.15,2013-11-01 22:37:00,
2013-11-01 17:39:00,53.9,41.6,29.71,WNW,286,8.0,14.0,63,0.00,,,0.00,16,Wunderground v.1.15,2013-11-01 22:39:00,
2013-11-01 17:41:00,53.9,41.6,29.71,NW,313,9.0,9.0,63,0.00,,,0.00,16,Wunderground v.1.15,2013-11-01 22:41:00,
2013-11-01 17:42:00,53.7,41.4,29.71,WNW,300,7.0,10.0,63,0.00,,,0.00,14,Wunderground v.1.15,2013-11-01 22:42:00,
2013-11-01 17:45:00,53.4,41.5,29.71,WNW,300,7.0,10.0,64,0.00,,,0.00,14,Wunderground v.1.15,2013-11-01 22:45:00,
2013-11-01 17:46:00,53.3,41.4,29.71,WNW,294,7.0,10.0,64,0.00,,,0.00,14,Wunderground v.1.15,2013-11-01 22:46:00,
2013-11-01 17:47:00,53.2,41.7,29.71,WNW,290,6.0,10.0,65,0.00,,,0.00,12,Wunderground v.1.15,2013-11-01 22:47:00,
2013-11-01 17:48:00,53.1,41.6,29.71,WNW,296,7.0,10.0,65,0.00,,,0.00,12,Wunderground v.1.15,2013-11-01 22:48:00,
2013-11-01 17:50:00,52.7,41.7,29.71,WNW,298,5.0,7.0,66,0.00,,,0.00,11,Wunderground v.1.15,2013-11-01 22:50:00,
2013-11-01 17:51:00,52.6,41.6,29.71,WNW,293,7.0,8.0,66,0.00,,,0.00,11,Wunderground v.1.15,2013-11-01 22:51:00,
2013-11-01 17:52:00,52.5,41.5,29.71,WNW,300,6.0,8.0,66,0.00,,,0.00,9,Wunderground v.1.15,2013-11-01 22:52:00,
2013-11-01 17:53:00,52.4,41.4,29.71,WNW,296,8.0,8.0,66,0.00,,,0.00,9,Wunderground v.1.15,2013-11-01 22:53:00,
2013-11-01 17:56:00,52.1,41.5,29.71,NW,304,7.0,9.0,67,0.00,,,0.00,7,Wunderground v.1.15,2013-11-01 22:56:00,
2013-11-01 17:57:00,52.0,41.4,29.71,WNW,303,5.0,9.0,67,0.00,,,0.00,7,Wunderground v.1.15,2013-11-01 22:57:00,
2013-11-01 17:58:00,51.9,41.3,29.71,WNW,288,7.0,9.0,67,0.00,,,0.00,7,Wunderground v.1.15,2013-11-01 22:58:00,
2013-11-01 17:59:00,51.9,41.3,29.71,WNW,299,7.0,9.0,67,0.00,,,0.00,5,Wunderground v.1.15,2013-11-01 22:59:00,
2013-11-01 18:01:00,51.8,41.6,29.72,WNW,294,5.0,8.0,68,0.00,,,0.00,5,Wunderground v.1.15,2013-11-01 23:01:00,
2013-11-01 18:03:00,51.7,41.5,29.72,WNW,290,6.0,8.0,68,0.00,,,0.00,5,Wunderground v.1.15,2013-11-01 23:03:00,
2013-11-01 18:04:00,51.7,41.5,29.72,WNW,292,6.0,8.0,68,0.00,,,0.00,5,Wunderground v.1.15,2013-11-01 23:04:00,
2013-11-01 18:05:00,51.6,41.8,29.72,WNW,293,7.0,8.0,69,0.00,,,0.00,5,Wunderground v.1.15,2013-11-01 23:05:00,
2013-11-01 18:06:00,51.5,41.7,29.72,WNW,294,7.0,8.0,69,0.00,,,0.00,5,Wunderground v.1.15,2013-11-01 23:06:00,
2013-11-01 18:08:00,51.4,41.6,29.72,WNW,296,6.0,9.0,69,0.00,,,0.00,0,Wunderground v.1.15,2013-11-01 23:08:00,
2013-11-01 18:09:00,51.4,41.6,29.72,WNW,286,10.0,10.0,69,0.00,,,0.00,0,Wunderground v.1.15,2013-11-01 23:09:00,
2013-11-01 18:10:00,51.3,41.5,29.72,West,281,6.0,11.0,69,0.00,,,0.00,0,Wunderground v.1.15,2013-11-01 23:10:00,
2013-11-01 18:11:00,51.3,41.8,29.72,WNW,288,6.0,9.0,70,0.00,,,0.00,0,Wunderground v.1.15,2013-11-01 23:11:00,
2013-11-01 18:14:00,51.2,41.7,29.72,WNW,292,7.0,10.0,70,0.00,,,0.00,0,Wunderground v.1.15,2013-11-01 23:14:00,
2013-11-01 18:15:00,51.2,41.7,29.72,WNW,292,7.0,10.0,70,0.00,,,0.00,0,Wunderground v.1.15,2013-11-01 23:15:00,
2013-11-01 18:17:00,51.2,41.7,29.72,WNW,292,9.0,10.0,70,0.00,,,0.00,0,Wunderground v.1.15,2013-11-01 23:17:00,
2013-11-01 18:19:00,51.3,41.8,29.72,WNW,288,7.0,10.0,70,0.00,,,0.00,0,Wunderground v.1.15,2013-11-01 23:19:00,
2013-11-01 18:20:00,51.3,41.8,29.72,WNW,284,8.0,10.0,70,0.00,,,0.00,0,Wunderground v.1.15,2013-11-01 23:20:00,
2013-11-01 18:22:00,51.3,41.8,29.73,WNW,287,14.0,14.0,70,0.00,,,0.00,0,Wunderground v.1.15,2013-11-01 23:22:00,
2013-11-01 18:24:00,51.3,41.8,29.73,WNW,286,8.0,14.0,70,0.00,,,0.00,0,Wunderground v.1.15,2013-11-01 23:24:00,
2013-11-01 18:25:00,51.4,41.9,29.73,West,280,9.0,14.0,70,0.00,,,0.00,0,Wunderground v.1.15,2013-11-01 23:25:00,
2013-11-01 18:27:00,51.4,41.9,29.73,WNW,299,9.0,14.0,70,0.00,,,0.00,0,Wunderground v.1.15,2013-11-01 23:27:00,
2013-11-01 18:29:00,51.4,41.9,29.73,WNW,289,11.0,14.0,70,0.00,,,0.00,0,Wunderground v.1.15,2013-11-01 23:29:00,
2013-11-01 18:31:00,51.4,41.9,29.73,WNW,289,8.0,10.0,70,0.00,,,0.00,0,Wunderground v.1.15,2013-11-01 23:31:00,
2013-11-01 18:32:00,51.5,42.0,29.73,WNW,288,7.0,10.0,70,0.00,,,0.00,0,Wunderground v.1.15,2013-11-01 23:32:00,
2013-11-01 18:35:00,51.5,42.0,29.74,WNW,286,11.0,13.0,70,0.00,,,0.00,0,Wunderground v.1.15,2013-11-01 23:35:00,
2013-11-01 18:36:00,51.4,41.9,29.74,WNW,283,10.0,18.0,70,0.00,,,0.00,0,Wunderground v.1.15,2013-11-01 23:36:00,
2013-11-01 18:37:00,51.4,41.6,29.74,WNW,294,10.0,18.0,69,0.00,,,0.00,0,Wunderground v.1.15,2013-11-01 23:37:00,
2013-11-01 18:40:00,51.3,41.1,29.73,WNW,302,10.0,18.0,68,0.00,,,0.00,0,Wunderground v.1.15,2013-11-01 23:40:00,
2013-11-01 18:41:00,51.3,40.7,29.73,NW,315,9.0,11.0,67,0.00,,,0.00,0,Wunderground v.1.15,2013-11-01 23:41:00,
2013-11-01 18:42:00,51.3,40.3,29.73,WNW,293,8.0,11.0,66,0.00,,,0.00,0,Wunderground v.1.15,2013-11-01 23:42:00,
2013-11-01 18:43:00,51.3,40.3,29.73,WNW,296,9.0,11.0,66,0.00,,,0.00,0,Wunderground v.1.15,2013-11-01 23:43:00,
2013-11-01 18:45:00,51.3,40.7,29.74,WNW,299,9.0,11.0,67,0.00,,,0.00,0,Wunderground v.1.15,2013-11-01 23:45:00,
2013-11-01 18:47:00,51.3,40.7,29.74,WNW,296,7.0,11.0,67,0.00,,,0.00,0,Wunderground v.1.15,2013-11-01 23:47:00,
2013-11-01 18:48:00,51.2,40.2,29.74,WNW,296,7.0,11.0,66,0.00,,,0.00,0,Wunderground v.1.15,2013-11-01 23:48:00,
2013-11-01 18:50:00,51.2,40.6,29.74,NW,312,7.0,8.0,67,0.00,,,0.00,0,Wunderground v.1.15,2013-11-01 23:50:00,
2013-11-01 18:51:00,51.2,41.0,29.74,WNW,297,6.0,9.0,68,0.00,,,0.00,0,Wunderground v.1.15,2013-11-01 23:51:00,
2013-11-01 18:52:00,51.1,41.3,29.74,WNW,303,8.0,9.0,69,0.00,,,0.00,0,Wunderground v.1.15,2013-11-01 23:52:00,
2013-11-01 18:53:00,51.1,41.7,29.74,WNW,300,9.0,9.0,70,0.00,,,0.00,0,Wunderground v.1.15,2013-11-01 23:53:00,
2013-11-01 18:54:00,51.0,41.6,29.74,WNW,290,6.0,10.0,70,0.00,,,0.00,0,Wunderground v.1.15,2013-11-01 23:54:00,
2013-11-01 18:56:00,50.9,41.8,29.74,WNW,294,8.0,10.0,71,0.00,,,0.00,0,Wunderground v.1.15,2013-11-01 23:56:00,
2013-11-01 18:57:00,50.8,41.7,29.74,WNW,294,7.0,10.0,71,0.00,,,0.00,0,Wunderground v.1.15,2013-11-01 23:57:00,
2013-11-01 18:59:00,50.6,41.5,29.74,WNW,300,6.0,10.0,71,0.00,,,0.00,0,Wunderground v.1.15,2013-11-01 23:59:00,
2013-11-01 19:01:00,50.4,41.7,29.74,WNW,287,8.0,8.0,72,0.00,,,0.00,0,Wunderground v.1.15,2013-11-02 00:01:00,
2013-11-01 19:02:00,50.3,42.0,29.74,WNW,292,7.0,9.0,73,0.00,,,0.00,0,Wunderground v.1.15,2013-11-02 00:02:00,
2013-11-01 19:04:00,50.2,42.2,29.75,WNW,287,9.0,9.0,74,0.00,,,0.00,0,Wunderground v.1.15,2013-11-02 00:04:00,
2013-11-01 19:05:00,50.1,42.1,29.75,WNW,297,7.0,9.0,74,0.00,,,0.00,0,Wunderground v.1.15,2013-11-02 00:05:00,
2013-11-01 19:07:00,50.0,41.7,29.75,West,279,16.0,24.0,73,0.00,,,0.00,0,Wunderground v.1.15,2013-11-02 00:07:00,
2013-11-01 19:10:00,49.9,41.6,29.76,NW,310,10.0,24.0,73,0.00,,,0.00,0,Wunderground v.1.15,2013-11-02 00:10:00,
2013-11-01 19:12:00,49.8,41.5,29.76,NW,307,20.0,20.0,73,0.00,,,0.00,0,Wunderground v.1.15,2013-11-02 00:12:00,
2013-11-01 19:13:00,49.7,41.4,29.76,WNW,288,14.0,28.0,73,0.00,,,0.00,0,Wunderground v.1.15,2013-11-02 00:13:00,
2013-11-01 19:15:00,49.4,41.5,29.76,WNW,299,17.0,28.0,74,0.00,,,0.00,0,Wunderground v.1.15,2013-11-02 00:15:00,
2013-11-01 19:16:00,49.2,42.0,29.76,WNW,303,14.0,28.0,76,0.00,,,0.00,0,Wunderground v.1.15,2013-11-02 00:16:00,
2013-11-01 19:17:00,49.0,42.1,29.76,WNW,288,15.0,28.0,77,0.00,,,0.00,0,Wunderground v.1.15,2013-11-02 00:17:00,
2013-11-01 19:18:00,48.9,42.0,29.77,NW,306,18.0,28.0,77,0.00,,,0.00,0,Wunderground v.1.15,2013-11-02 00:18:00,
2013-11-01 19:20:00,48.5,42.0,29.77,NW,317,9.0,16.0,78,0.00,,,0.01,0,Wunderground v.1.15,2013-11-02 00:20:00,
2013-11-01 19:21:00,48.4,41.9,29.76,NW,306,7.0,16.0,78,0.00,,,0.01,0,Wunderground v.1.15,2013-11-02 00:21:00,
2013-11-01 19:22:00,48.3,42.1,29.76,NW,310,6.0,16.0,79,0.00,,,0.01,0,Wunderground v.1.15,2013-11-02 00:22:00,
2013-11-01 19:23:00,48.3,42.1,29.76,NW,307,9.0,16.0,79,0.00,,,0.01,0,Wunderground v.1.15,2013-11-02 00:23:00,
2013-11-01 19:25:00,48.1,41.9,29.76,WNW,301,7.0,16.0,79,0.00,,,0.01,0,Wunderground v.1.15,2013-11-02 00:25:00,
2013-11-01 19:26:00,48.1,41.9,29.76,NW,312,9.0,16.0,79,0.00,,,0.01,0,Wunderground v.1.15,2013-11-02 00:26:00,
2013-11-01 19:27:00,48.1,41.9,29.76,NW,308,10.0,16.0,79,0.00,,,0.01,0,Wunderground v.1.15,2013-11-02 00:27:00,
2013-11-01 19:28:00,48.1,41.9,29.76,WNW,295,9.0,16.0,79,0.00,,,0.01,0,Wunderground v.1.15,2013-11-02 00:28:00,
2013-11-01 19:31:00,47.9,41.7,29.76,WNW,300,8.0,11.0,79,0.00,,,0.01,0,Wunderground v.1.15,2013-11-02 00:31:00,
2013-11-01 19:32:00,47.9,41.7,29.76,WNW,298,9.0,11.0,79,0.00,,,0.01,0,Wunderground v.1.15,2013-11-02 00:32:00,
2013-11-01 19:33:00,47.8,41.9,29.76,WNW,303,6.0,11.0,80,0.00,,,0.01,0,Wunderground v.1.15,2013-11-02 00:33:00,
2013-11-01 19:34:00,47.8,41.9,29.76,WNW,303,10.0,11.0,80,0.00,,,0.01,0,Wunderground v.1.15,2013-11-02 00:34:00,
2013-11-01 19:36:00,47.6,41.7,29.76,WNW,296,6.0,11.0,80,0.00,,,0.01,0,Wunderground v.1.15,2013-11-02 00:36:00,
2013-11-01 19:37:00,47.6,42.1,29.76,NW,304,8.0,11.0,81,0.00,,,0.01,0,Wunderground v.1.15,2013-11-02 00:37:00,
2013-11-01 19:39:00,47.5,42.0,29.76,NW,304,7.0,11.0,81,0.00,,,0.01,0,Wunderground v.1.15,2013-11-02 00:39:00,
2013-11-01 19:41:00,47.3,41.8,29.76,WNW,294,8.0,11.0,81,0.00,,,0.01,0,Wunderground v.1.15,2013-11-02 00:41:00,
2013-11-01 19:42:00,47.3,41.8,29.76,WNW,293,5.0,11.0,81,0.00,,,0.01,0,Wunderground v.1.15,2013-11-02 00:42:00,
2013-11-01 19:44:00,47.1,41.9,29.76,WNW,300,8.0,11.0,82,0.00,,,0.01,0,Wunderground v.1.15,2013-11-02 00:44:00,
2013-11-01 19:46:00,46.9,41.7,29.77,WNW,296,6.0,11.0,82,0.00,,,0.01,0,Wunderground v.1.15,2013-11-02 00:46:00,
2013-11-01 19:47:00,46.8,41.6,29.77,NW,308,6.0,11.0,82,0.00,,,0.01,0,Wunderground v.1.15,2013-11-02 00:47:00,
2013-11-01 19:49:00,46.6,41.7,29.77,WNW,292,4.0,11.0,83,0.00,,,0.01,0,Wunderground v.1.15,2013-11-02 00:49:00,
2013-11-01 19:52:00,46.4,41.5,29.77,WNW,293,4.0,7.0,83,0.00,,,0.01,0,Wunderground v.1.15,2013-11-02 00:52:00,
2013-11-01 19:54:00,46.0,41.4,29.77,West,281,5.0,7.0,84,0.00,,,0.01,0,Wunderground v.1.15,2013-11-02 00:54:00,
2013-11-01 19:55:00,46.0,41.4,29.77,WNW,288,5.0,7.0,84,0.00,,,0.01,0,Wunderground v.1.15,2013-11-02 00:55:00,
2013-11-01 19:57:00,45.8,41.2,29.77,WNW,285,6.0,9.0,84,0.00,,,0.01,0,Wunderground v.1.15,2013-11-02 00:57:00,
2013-11-01 20:00:00,45.6,41.4,29.77,WNW,286,5.0,9.0,85,0.00,,,0.01,0,Wunderground v.1.15,2013-11-02 01:00:00,
2013-11-01 20:02:00,45.5,41.3,29.78,WNW,290,8.0,9.0,85,0.00,,,0.01,0,Wunderground v.1.15,2013-11-02 01:02:00,
2013-11-01 20:03:00,45.5,41.3,29.78,West,275,6.0,9.0,85,0.00,,,0.01,0,Wunderground v.1.15,2013-11-02 01:03:00,
2013-11-01 20:05:00,45.4,41.5,29.78,WNW,288,8.0,10.0,86,0.00,,,0.01,0,Wunderground v.1.15,2013-11-02 01:05:00,
2013-11-01 20:07:00,45.4,41.5,29.78,WNW,290,9.0,11.0,86,0.00,,,0.01,0,Wunderground v.1.15,2013-11-02 01:07:00,
2013-11-01 20:08:00,45.4,41.5,29.78,West,279,9.0,11.0,86,0.00,,,0.01,0,Wunderground v.1.15,2013-11-02 01:08:00,
2013-11-01 20:09:00,45.4,41.5,29.78,WNW,294,10.0,11.0,86,0.00,,,0.01,0,Wunderground v.1.15,2013-11-02 01:09:00,
2013-11-01 20:10:00,45.4,41.5,29.78,WNW,285,7.0,8.0,86,0.00,,,0.01,0,Wunderground v.1.15,2013-11-02 01:10:00,
2013-11-01 20:11:00,45.3,41.4,29.78,WNW,284,8.0,11.0,86,0.00,,,0.01,0,Wunderground v.1.15,2013-11-02 01:11:00,
2013-11-01 20:12:00,45.3,41.4,29.78,WNW,288,5.0,11.0,86,0.00,,,0.01,0,Wunderground v.1.15,2013-11-02 01:12:00,
2013-11-01 20:13:00,45.3,41.4,29.78,West,280,6.0,11.0,86,0.00,,,0.01,0,Wunderground v.1.15,2013-11-02 01:13:00,
2013-11-01 20:14:00,45.3,41.4,29.77,WNW,285,7.0,11.0,86,0.00,,,0.01,0,Wunderground v.1.15,2013-11-02 01:14:00,
2013-11-01 20:15:00,45.3,41.4,29.77,WNW,289,8.0,11.0,86,0.00,,,0.01,0,Wunderground v.1.15,2013-11-02 01:15:00,
2013-11-01 20:16:00,45.2,41.3,29.78,WNW,288,5.0,11.0,86,0.00,,,0.01,0,Wunderground v.1.15,2013-11-02 01:16:00,
2013-11-01 20:18:00,45.2,41.3,29.78,WNW,282,7.0,11.0,86,0.00,,,0.01,0,Wunderground v.1.15,2013-11-02 01:18:00,
2013-11-01 20:20:00,45.1,41.2,29.78,WNW,283,6.0,11.0,86,0.00,,,0.01,0,Wunderground v.1.15,2013-11-02 01:20:00,
2013-11-01 20:22:00,45.0,41.1,29.77,WNW,293,6.0,9.0,86,0.00,,,0.01,0,Wunderground v.1.15,2013-11-02 01:22:00,
2013-11-01 20:24:00,44.9,41.0,29.78,WNW,293,6.0,9.0,86,0.00,,,0.01,0,Wunderground v.1.15,2013-11-02 01:24:00,
2013-11-01 20:26:00,44.8,40.9,29.78,WNW,295,5.0,9.0,86,0.00,,,0.01,0,Wunderground v.1.15,2013-11-02 01:26:00,
2013-11-01 20:27:00,44.7,40.8,29.78,WNW,292,4.0,9.0,86,0.00,,,0.01,0,Wunderground v.1.15,2013-11-02 01:27:00,
2013-11-01 20:29:00,44.5,40.6,29.78,WNW,296,4.0,9.0,86,0.00,,,0.01,0,Wunderground v.1.15,2013-11-02 01:29:00,
2013-11-01 20:30:00,44.5,40.9,29.78,WNW,295,4.0,9.0,87,0.00,,,0.01,0,Wunderground v.1.15,2013-11-02 01:30:00,
2013-11-01 20:31:00,44.5,40.9,29.78,WNW,296,6.0,8.0,87,0.00,,,0.01,0,Wunderground v.1.15,2013-11-02 01:31:00,
2013-11-01 20:32:00,44.4,40.8,29.78,WNW,294,5.0,8.0,87,0.00,,,0.01,0,Wunderground v.1.15,2013-11-02 01:32:00,
2013-11-01 20:34:00,44.4,40.8,29.78,WNW,294,4.0,10.0,87,0.00,,,0.01,0,Wunderground v.1.15,2013-11-02 01:34:00,
2013-11-01 20:35:00,44.3,40.7,29.78,WNW,288,7.0,10.0,87,0.00,,,0.01,0,Wunderground v.1.15,2013-11-02 01:35:00,
2013-11-01 20:36:00,44.3,40.7,29.78,WNW,296,6.0,10.0,87,0.00,,,0.01,0,Wunderground v.1.15,2013-11-02 01:36:00,
2013-11-01 20:37:00,44.3,40.7,29.78,WNW,284,5.0,10.0,87,0.00,,,0.01,0,Wunderground v.1.15,2013-11-02 01:37:00,
2013-11-01 20:38:00,44.3,40.7,29.78,WNW,294,9.0,10.0,87,0.00,,,0.01,0,Wunderground v.1.15,2013-11-02 01:38:00,
2013-11-01 20:39:00,44.3,40.7,29.78,WNW,287,5.0,11.0,87,0.00,,,0.01,0,Wunderground v.1.15,2013-11-02 01:39:00,
2013-11-01 20:41:00,44.3,41.0,29.78,WNW,296,6.0,9.0,88,0.00,,,0.01,0,Wunderground v.1.15,2013-11-02 01:41:00,
2013-11-01 20:43:00,44.3,41.0,29.78,WNW,290,6.0,9.0,88,0.00,,,0.01,0,Wunderground v.1.15,2013-11-02 01:43:00,
2013-11-01 20:45:00,44.3,41.0,29.78,WNW,290,7.0,11.0,88,0.00,,,0.01,0,Wunderground v.1.15,2013-11-02 01:45:00,
2013-11-01 20:46:00,44.3,41.0,29.78,WNW,291,6.0,11.0,88,0.00,,,0.01,0,Wunderground v.1.15,2013-11-02 01:46:00,
2013-11-01 20:48:00,44.3,41.0,29.79,WNW,289,6.0,11.0,88,0.00,,,0.01,0,Wunderground v.1.15,2013-11-02 01:48:00,
2013-11-01 20:50:00,44.4,41.1,29.79,WNW,292,8.0,10.0,88,0.00,,,0.01,0,Wunderground v.1.15,2013-11-02 01:50:00,
2013-11-01 20:51:00,44.4,41.1,29.79,WNW,297,6.0,10.0,88,0.00,,,0.01,0,Wunderground v.1.15,2013-11-02 01:51:00,
2013-11-01 20:52:00,44.5,41.2,29.79,West,276,5.0,10.0,88,0.00,,,0.01,0,Wunderground v.1.15,2013-11-02 01:52:00,
2013-11-01 20:53:00,44.5,41.2,29.79,WNW,296,8.0,10.0,88,0.00,,,0.01,0,Wunderground v.1.15,2013-11-02 01:53:00,
2013-11-01 20:54:00,44.5,41.2,29.79,WNW,282,6.0,10.0,88,0.00,,,0.01,0,Wunderground v.1.15,2013-11-02 01:54:00,
2013-11-01 20:56:00,44.5,41.2,29.79,WNW,288,7.0,10.0,88,0.00,,,0.01,0,Wunderground v.1.15,2013-11-02 01:56:00,
2013-11-01 20:57:00,44.5,41.2,29.79,WNW,296,9.0,10.0,88,0.00,,,0.01,0,Wunderground v.1.15,2013-11-02 01:57:00,
2013-11-01 20:58:00,44.5,41.2,29.79,WNW,294,7.0,10.0,88,0.00,,,0.01,0,Wunderground v.1.15,2013-11-02 01:58:00,
2013-11-01 20:59:00,44.5,41.2,29.79,WNW,299,8.0,10.0,88,0.00,,,0.01,0,Wunderground v.1.15,2013-11-02 01:59:00,
2013-11-01 21:01:00,44.5,41.2,29.79,WNW,286,5.0,8.0,88,0.00,,,0.01,0,Wunderground v.1.15,2013-11-02 02:01:00,
2013-11-01 21:02:00,44.4,41.1,29.79,WNW,290,4.0,11.0,88,0.00,,,0.01,0,Wunderground v.1.15,2013-11-02 02:02:00,
2013-11-01 21:04:00,44.4,41.1,29.79,WNW,288,5.0,11.0,88,0.00,,,0.01,0,Wunderground v.1.15,2013-11-02 02:04:00,
2013-11-01 21:05:00,44.3,40.7,29.79,WNW,288,6.0,11.0,87,0.00,,,0.01,0,Wunderground v.1.15,2013-11-02 02:05:00,
2013-11-01 21:06:00,44.3,40.7,29.79,NW,311,4.0,11.0,87,0.00,,,0.01,0,Wunderground v.1.15,2013-11-02 02:06:00,
2013-11-01 21:08:00,44.2,40.6,29.80,WNW,296,5.0,11.0,87,0.00,,,0.01,0,Wunderground v.1.15,2013-11-02 02:08:00,
2013-11-01 21:10:00,44.1,40.5,29.79,West,269,7.0,11.0,87,0.00,,,0.01,0,Wunderground v.1.15,2013-11-02 02:10:00,
2013-11-01 21:11:00,44.0,40.4,29.80,WNW,293,6.0,12.0,87,0.00,,,0.01,0,Wunderground v.1.15,2013-11-02 02:11:00,
2013-11-01 21:13:00,44.0,40.4,29.80,WNW,290,8.0,12.0,87,0.00,,,0.01,0,Wunderground v.1.15,2013-11-02 02:13:00,
2013-11-01 21:15:00,43.9,40.3,29.80,WNW,296,7.0,12.0,87,0.00,,,0.01,0,Wunderground v.1.15,2013-11-02 02:15:00,
2013-11-01 21:16:00,43.9,40.6,29.80,WNW,298,6.0,12.0,88,0.00,,,0.01,0,Wunderground v.1.15,2013-11-02 02:16:00,
2013-11-01 21:17:00,43.9,40.6,29.80,WNW,302,8.0,12.0,88,0.00,,,0.01,0,Wunderground v.1.15,2013-11-02 02:17:00,
2013-11-01 21:18:00,43.9,40.6,29.80,WNW,296,7.0,12.0,88,0.00,,,0.01,0,Wunderground v.1.15,2013-11-02 02:18:00,
2013-11-01 21:21:00,43.8,40.5,29.80,WNW,287,7.0,8.0,88,0.00,,,0.01,0,Wunderground v.1.15,2013-11-02 02:21:00,
2013-11-01 21:22:00,43.8,40.5,29.80,WNW,300,12.0,12.0,88,0.00,,,0.01,0,Wunderground v.1.15,2013-11-02 02:22:00,
2013-11-01 21:24:00,43.8,40.5,29.80,WNW,290,10.0,12.0,88,0.00,,,0.01,0,Wunderground v.1.15,2013-11-02 02:24:00,
2013-11-01 21:26:00,43.8,40.5,29.80,NW,311,10.0,12.0,88,0.00,,,0.01,0,Wunderground v.1.15,2013-11-02 02:26:00,
2013-11-01 21:27:00,43.8,40.5,29.80,WNW,287,8.0,12.0,88,0.00,,,0.01,0,Wunderground v.1.15,2013-11-02 02:27:00,
2013-11-01 21:29:00,43.8,40.5,29.80,WNW,293,7.0,12.0,88,0.00,,,0.01,0,Wunderground v.1.15,2013-11-02 02:29:00,
2013-11-01 21:31:00,43.8,40.5,29.80,WNW,298,10.0,12.0,88,0.00,,,0.01,0,Wunderground v.1.15,2013-11-02 02:31:00,
2013-11-01 21:32:00,43.8,40.5,29.80,WNW,301,9.0,12.0,88,0.00,,,0.01,0,Wunderground v.1.15,2013-11-02 02:32:00,
2013-11-01 21:33:00,43.8,40.5,29.80,WNW,295,8.0,12.0,88,0.00,,,0.01,0,Wunderground v.1.15,2013-11-02 02:33:00,
2013-11-01 21:34:00,43.9,40.6,29.80,WNW,299,7.0,13.0,88,0.00,,,0.01,0,Wunderground v.1.15,2013-11-02 02:34:00,
2013-11-01 21:37:00,43.9,40.6,29.80,WNW,294,12.0,13.0,88,0.00,,,0.01,0,Wunderground v.1.15,2013-11-02 02:37:00,
2013-11-01 21:38:00,43.9,40.6,29.80,West,276,7.0,14.0,88,0.00,,,0.01,0,Wunderground v.1.15,2013-11-02 02:38:00,
2013-11-01 21:39:00,43.9,40.6,29.80,NW,311,11.0,14.0,88,0.00,,,0.01,0,Wunderground v.1.15,2013-11-02 02:39:00,
2013-11-01 21:40:00,43.9,40.6,29.80,WNW,288,12.0,14.0,88,0.00,,,0.01,0,Wunderground v.1.15,2013-11-02 02:40:00,
2013-11-01 21:42:00,43.9,40.6,29.80,WNW,294,10.0,13.0,88,0.00,,,0.01,0,Wunderground v.1.15,2013-11-02 02:42:00,
2013-11-01 21:44:00,43.9,40.6,29.81,NW,309,8.0,13.0,88,0.00,,,0.01,0,Wunderground v.1.15,2013-11-02 02:44:00,
2013-11-01 21:45:00,43.9,40.6,29.81,WNW,302,8.0,13.0,88,0.00,,,0.01,0,Wunderground v.1.15,2013-11-02 02:45:00,
2013-11-01 21:47:00,43.8,40.5,29.81,WNW,297,11.0,13.0,88,0.00,,,0.01,0,Wunderground v.1.15,2013-11-02 02:47:00,
2013-11-01 21:49:00,43.8,40.5,29.81,WNW,298,10.0,13.0,88,0.00,,,0.01,0,Wunderground v.1.15,2013-11-02 02:49:00,
2013-11-01 21:50:00,43.8,40.5,29.81,WNW,296,9.0,13.0,88,0.00,,,0.01,0,Wunderground v.1.15,2013-11-02 02:50:00,
2013-11-01 21:52:00,43.7,40.4,29.81,NW,305,9.0,14.0,88,0.00,,,0.01,0,Wunderground v.1.15,2013-11-02 02:52:00,
2013-11-01 21:53:00,43.7,40.4,29.81,WNW,298,7.0,14.0,88,0.00,,,0.01,0,Wunderground v.1.15,2013-11-02 02:53:00,
2013-11-01 21:55:00,43.7,40.4,29.81,WNW,294,9.0,14.0,88,0.00,,,0.01,0,Wunderground v.1.15,2013-11-02 02:55:00,
2013-11-01 21:58:00,43.7,40.4,29.81,WNW,294,8.0,14.0,88,0.00,,,0.01,0,Wunderground v.1.15,2013-11-02 02:58:00,
2013-11-01 22:00:00,43.7,40.4,29.81,NW,312,7.0,14.0,88,0.00,,,0.01,0,Wunderground v.1.15,2013-11-02 03:00:00,
2013-11-01 22:03:00,43.7,40.4,29.81,WNW,299,9.0,13.0,88,0.00,,,0.01,0,Wunderground v.1.15,2013-11-02 03:03:00,
2013-11-01 22:05:00,43.7,40.4,29.81,NW,304,9.0,13.0,88,0.00,,,0.01,0,Wunderground v.1.15,2013-11-02 03:05:00,
2013-11-01 22:06:00,43.6,40.3,29.81,NW,316,8.0,13.0,88,0.00,,,0.01,0,Wunderground v.1.15,2013-11-02 03:06:00,
2013-11-01 22:08:00,43.6,40.3,29.81,WNW,292,8.0,13.0,88,0.00,,,0.01,0,Wunderground v.1.15,2013-11-02 03:08:00,
2013-11-01 22:10:00,43.5,40.2,29.81,WNW,298,6.0,9.0,88,0.00,,,0.01,0,Wunderground v.1.15,2013-11-02 03:10:00,
2013-11-01 22:11:00,43.4,40.1,29.81,NW,306,9.0,10.0,88,0.00,,,0.01,0,Wunderground v.1.15,2013-11-02 03:11:00,
2013-11-01 22:13:00,43.4,40.1,29.82,WNW,287,10.0,13.0,88,0.00,,,0.01,0,Wunderground v.1.15,2013-11-02 03:13:00,
2013-11-01 22:14:00,43.4,40.1,29.82,WNW,292,7.0,13.0,88,0.00,,,0.01,0,Wunderground v.1.15,2013-11-02 03:14:00,
2013-11-01 22:15:00,43.4,40.1,29.82,NW,306,7.0,13.0,88,0.00,,,0.01,0,Wunderground v.1.15,2013-11-02 03:15:00,
2013-11-01 22:16:00,43.4,40.1,29.82,WNW,298,7.0,13.0,88,0.00,,,0.01,0,Wunderground v.1.15,2013-11-02 03:16:00,
2013-11-01 22:17:00,43.4,40.1,29.82,NW,309,8.0,13.0,88,0.00,,,0.01,0,Wunderground v.1.15,2013-11-02 03:17:00,
2013-11-01 22:19:00,43.4,40.4,29.82,WNW,288,8.0,13.0,89,0.00,,,0.01,0,Wunderground v.1.15,2013-11-02 03:19:00,
2013-11-01 22:20:00,43.4,40.4,29.82,WNW,288,9.0,9.0,89,0.00,,,0.01,0,Wunderground v.1.15,2013-11-02 03:20:00,
2013-11-01 22:21:00,43.4,40.4,29.82,West,275,8.0,9.0,89,0.00,,,0.01,0,Wunderground v.1.15,2013-11-02 03:21:00,
2013-11-01 22:22:00,43.4,40.4,29.82,WNW,303,7.0,9.0,89,0.00,,,0.01,0,Wunderground v.1.15,2013-11-02 03:22:00,
2013-11-01 22:24:00,43.4,40.4,29.82,WNW,300,6.0,9.0,89,0.00,,,0.01,0,Wunderground v.1.15,2013-11-02 03:24:00,
2013-11-01 22:26:00,43.5,40.5,29.82,WNW,289,9.0,9.0,89,0.00,,,0.01,0,Wunderground v.1.15,2013-11-02 03:26:00,
2013-11-01 22:27:00,43.4,40.4,29.82,WNW,292,5.0,9.0,89,0.00,,,0.01,0,Wunderground v.1.15,2013-11-02 03:27:00,
2013-11-01 22:29:00,43.5,40.5,29.82,NW,304,7.0,9.0,89,0.00,,,0.01,0,Wunderground v.1.15,2013-11-02 03:29:00,
2013-11-01 22:30:00,43.4,40.4,29.82,WNW,295,7.0,9.0,89,0.00,,,0.01,0,Wunderground v.1.15,2013-11-02 03:30:00,
2013-11-01 22:31:00,43.4,40.4,29.82,WNW,290,6.0,7.0,89,0.00,,,0.01,0,Wunderground v.1.15,2013-11-02 03:31:00,
2013-11-01 22:32:00,43.5,40.8,29.82,WNW,298,6.0,11.0,90,0.00,,,0.01,0,Wunderground v.1.15,2013-11-02 03:32:00,
2013-11-01 22:34:00,43.5,40.8,29.83,WNW,296,8.0,11.0,90,0.00,,,0.01,0,Wunderground v.1.15,2013-11-02 03:34:00,
2013-11-01 22:35:00,43.5,40.8,29.83,WNW,290,9.0,11.0,90,0.00,,,0.01,0,Wunderground v.1.15,2013-11-02 03:35:00,
2013-11-01 22:36:00,43.5,40.8,29.83,WNW,295,8.0,11.0,90,0.00,,,0.01,0,Wunderground v.1.15,2013-11-02 03:36:00,
2013-11-01 22:37:00,43.5,40.8,29.83,NW,311,10.0,11.0,90,0.00,,,0.01,0,Wunderground v.1.15,2013-11-02 03:37:00,
2013-11-01 22:40:00,43.6,40.9,29.83,NW,304,6.0,8.0,90,0.00,,,0.01,0,Wunderground v.1.15,2013-11-02 03:40:00,
2013-11-01 22:41:00,43.6,40.9,29.83,WNW,294,8.0,9.0,90,0.00,,,0.01,0,Wunderground v.1.15,2013-11-02 03:41:00,
2013-11-01 22:42:00,43.6,40.9,29.82,NW,307,7.0,9.0,90,0.00,,,0.01,0,Wunderground v.1.15,2013-11-02 03:42:00,
2013-11-01 22:45:00,43.7,41.0,29.83,NW,306,10.0,11.0,90,0.00,,,0.01,0,Wunderground v.1.15,2013-11-02 03:45:00,
2013-11-01 22:46:00,43.7,41.0,29.83,WNW,295,7.0,11.0,90,0.00,,,0.01,0,Wunderground v.1.15,2013-11-02 03:46:00,
2013-11-01 22:47:00,43.7,41.0,29.83,WNW,287,6.0,11.0,90,0.00,,,0.01,0,Wunderground v.1.15,2013-11-02 03:47:00,
2013-11-01 22:48:00,43.7,41.0,29.83,WNW,296,7.0,11.0,90,0.00,,,0.01,0,Wunderground v.1.15,2013-11-02 03:48:00,
2013-11-01 22:51:00,43.8,41.1,29.83,WNW,290,7.0,11.0,90,0.00,,,0.01,0,Wunderground v.1.15,2013-11-02 03:51:00,
2013-11-01 22:52:00,43.8,41.1,29.83,NW,306,7.0,11.0,90,0.00,,,0.01,0,Wunderground v.1.15,2013-11-02 03:52:00,
2013-11-01 22:53:00,43.8,41.1,29.83,WNW,298,7.0,11.0,90,0.00,,,0.01,0,Wunderground v.1.15,2013-11-02 03:53:00,
2013-11-01 22:56:00,43.9,41.2,29.83,WNW,295,6.0,11.0,90,0.00,,,0.01,0,Wunderground v.1.15,2013-11-02 03:56:00,
2013-11-01 22:57:00,43.9,41.2,29.83,WNW,293,9.0,11.0,90,0.00,,,0.01,0,Wunderground v.1.15,2013-11-02 03:57:00,
2013-11-01 22:58:00,43.9,41.2,29.83,WNW,296,6.0,11.0,90,0.00,,,0.01,0,Wunderground v.1.15,2013-11-02 03:58:00,
2013-11-01 22:59:00,44.0,41.3,29.83,WNW,289,6.0,11.0,90,0.00,,,0.01,0,Wunderground v.1.15,2013-11-02 03:59:00,
2013-11-01 23:01:00,44.0,41.3,29.83,WNW,286,7.0,9.0,90,0.00,,,0.01,0,Wunderground v.1.15,2013-11-02 04:01:00,
2013-11-01 23:02:00,44.0,41.3,29.83,NW,304,7.0,10.0,90,0.00,,,0.01,0,Wunderground v.1.15,2013-11-02 04:02:00,
2013-11-01 23:06:00,44.1,41.4,29.83,WNW,294,10.0,14.0,90,0.00,,,0.01,0,Wunderground v.1.15,2013-11-02 04:06:00,
2013-11-01 23:07:00,44.2,41.5,29.83,WNW,300,9.0,14.0,90,0.00,,,0.01,0,Wunderground v.1.15,2013-11-02 04:07:00,
2013-11-01 23:11:00,44.2,41.5,29.83,WNW,291,7.0,11.0,90,0.00,,,0.01,0,Wunderground v.1.15,2013-11-02 04:11:00,
2013-11-01 23:12:00,44.2,41.5,29.83,WNW,296,6.0,11.0,90,0.00,,,0.01,0,Wunderground v.1.15,2013-11-02 04:12:00,
2013-11-01 23:13:00,44.2,41.5,29.84,WNW,296,6.0,11.0,90,0.00,,,0.01,0,Wunderground v.1.15,2013-11-02 04:13:00,
2013-11-01 23:16:00,44.3,41.6,29.83,WNW,302,10.0,11.0,90,0.00,,,0.01,0,Wunderground v.1.15,2013-11-02 04:16:00,
2013-11-01 23:17:00,44.4,41.7,29.83,WNW,293,10.0,11.0,90,0.00,,,0.01,0,Wunderground v.1.15,2013-11-02 04:17:00,
2013-11-01 23:18:00,44.4,41.7,29.83,WNW,289,7.0,11.0,90,0.00,,,0.01,0,Wunderground v.1.15,2013-11-02 04:18:00,
2013-11-01 23:21:00,44.4,41.7,29.83,WNW,295,6.0,9.0,90,0.00,,,0.01,0,Wunderground v.1.15,2013-11-02 04:21:00,
2013-11-01 23:22:00,44.4,41.7,29.83,WNW,288,8.0,11.0,90,0.00,,,0.01,0,Wunderground v.1.15,2013-11-02 04:22:00,
2013-11-01 23:23:00,44.5,41.7,29.83,WNW,298,5.0,11.0,90,0.00,,,0.01,0,Wunderground v.1.15,2013-11-02 04:23:00,
2013-11-01 23:24:00,44.5,41.7,29.83,NW,316,7.0,11.0,90,0.00,,,0.01,0,Wunderground v.1.15,2013-11-02 04:24:00,
2013-11-01 23:26:00,44.5,41.7,29.84,WNW,288,9.0,11.0,90,0.00,,,0.01,0,Wunderground v.1.15,2013-11-02 04:26:00,
2013-11-01 23:28:00,44.5,41.7,29.84,NW,306,10.0,11.0,90,0.00,,,0.01,0,Wunderground v.1.15,2013-11-02 04:28:00,
2013-11-01 23:29:00,44.5,41.7,29.84,WNW,296,7.0,11.0,90,0.00,,,0.01,0,Wunderground v.1.15,2013-11-02 04:29:00,
2013-11-01 23:32:00,44.5,41.7,29.84,WNW,296,8.0,10.0,90,0.00,,,0.01,0,Wunderground v.1.15,2013-11-02 04:32:00,
2013-11-01 23:33:00,44.5,41.7,29.84,WNW,292,7.0,10.0,90,0.00,,,0.01,0,Wunderground v.1.15,2013-11-02 04:33:00,
2013-11-01 23:34:00,44.5,41.7,29.84,WNW,296,7.0,10.0,90,0.00,,,0.01,0,Wunderground v.1.15,2013-11-02 04:34:00,
2013-11-01 23:37:00,44.5,41.7,29.84,WNW,288,7.0,12.0,90,0.00,,,0.01,0,Wunderground v.1.15,2013-11-02 04:37:00,
2013-11-01 23:39:00,44.6,41.8,29.84,WNW,295,8.0,12.0,90,0.00,,,0.01,0,Wunderground v.1.15,2013-11-02 04:39:00,
2013-11-01 23:40:00,44.5,41.7,29.84,WNW,286,10.0,10.0,90,0.00,,,0.01,0,Wunderground v.1.15,2013-11-02 04:40:00,
2013-11-01 23:42:00,44.6,41.8,29.84,WNW,295,7.0,11.0,90,0.00,,,0.01,0,Wunderground v.1.15,2013-11-02 04:42:00,
2013-11-01 23:44:00,44.6,41.8,29.84,WNW,302,4.0,11.0,90,0.00,,,0.01,0,Wunderground v.1.15,2013-11-02 04:44:00,
2013-11-01 23:45:00,44.6,41.8,29.84,WNW,294,6.0,11.0,90,0.00,,,0.01,0,Wunderground v.1.15,2013-11-02 04:45:00,
2013-11-01 23:46:00,44.6,41.8,29.84,WNW,297,11.0,12.0,90,0.00,,,0.01,0,Wunderground v.1.15,2013-11-02 04:46:00,
2013-11-01 23:47:00,44.6,41.8,29.84,WNW,293,7.0,12.0,90,0.00,,,0.01,0,Wunderground v.1.15,2013-11-02 04:47:00,
2013-11-01 23:49:00,44.6,41.8,29.84,WNW,292,8.0,12.0,90,0.00,,,0.01,0,Wunderground v.1.15,2013-11-02 04:49:00,
2013-11-01 23:50:00,44.6,41.8,29.84,WNW,302,8.0,12.0,90,0.00,,,0.01,0,Wunderground v.1.15,2013-11-02 04:50:00,
2013-11-01 23:51:00,44.6,41.8,29.84,WNW,289,7.0,10.0,90,0.00,,,0.01,0,Wunderground v.1.15,2013-11-02 04:51:00,
2013-11-01 23:52:00,44.6,41.8,29.84,WNW,296,5.0,10.0,90,0.00,,,0.01,0,Wunderground v.1.15,2013-11-02 04:52:00,
2013-11-01 23:55:00,44.6,41.8,29.84,WNW,290,9.0,11.0,90,0.00,,,0.01,0,Wunderground v.1.15,2013-11-02 04:55:00,
2013-11-01 23:56:00,44.6,41.8,29.84,WNW,298,6.0,11.0,90,0.00,,,0.00,0,Wunderground v.1.15,2013-11-02 04:56:00,
2013-11-01 23:58:00,44.6,41.8,29.84,WNW,290,7.0,11.0,90,0.00,,,0.00,0,Wunderground v.1.15,2013-11-02 04:58:00,